Time,TemperatureF,DewpointF,PressureIn,WindDirection,WindDirectionDegrees,WindSpeedMPH,WindSpeedGustMPH,Humidity,HourlyPrecipIn,Conditions,Clouds,dailyrainin,SoftwareType,DateUTC
2013-08-06 00:01:00,68.3,59.7,29.99,WSW,249,0.0,7.0,74,0.00,,,0.00,VWS V14.01,2013-08-06 04:01:00,
2013-08-06 00:02:00,68.1,59.5,29.99,WSW,254,3.0,7.0,74,0.00,,,0.00,VWS V14.01,2013-08-06 04:02:00,
2013-08-06 00:03:00,68.1,59.5,29.99,WSW,254,0.0,7.0,74,0.00,,,0.00,VWS V14.01,2013-08-06 04:03:00,
2013-08-06 00:05:00,68.1,59.5,30.00,WSW,254,2.0,7.0,74,0.00,,,0.00,VWS V14.01,2013-08-06 04:05:00,
2013-08-06 00:06:00,68.1,59.5,30.00,WSW,254,0.0,3.0,74,0.00,,,0.00,VWS V14.01,2013-08-06 04:06:00,
2013-08-06 00:10:00,68.1,59.5,30.00,WSW,254,0.0,3.0,74,0.00,,,0.00,VWS V14.01,2013-08-06 04:10:00,
2013-08-06 00:12:00,68.1,59.5,30.00,WSW,254,0.0,3.0,74,0.00,,,0.00,VWS V14.01,2013-08-06 04:12:00,
2013-08-06 00:15:00,67.9,59.3,30.00,WSW,254,0.0,3.0,74,0.00,,,0.00,VWS V14.01,2013-08-06 04:15:00,
2013-08-06 00:16:00,67.9,59.3,30.00,WSW,254,0.0,3.0,74,0.00,,,0.00,VWS V14.01,2013-08-06 04:16:00,
2013-08-06 00:17:00,67.9,59.3,30.00,WSW,254,0.0,3.0,74,0.00,,,0.00,VWS V14.01,2013-08-06 04:17:00,
2013-08-06 00:18:00,67.9,59.3,30.00,WSW,254,0.0,3.0,74,0.00,,,0.00,VWS V14.01,2013-08-06 04:18:00,
2013-08-06 00:19:00,67.9,59.3,29.99,WSW,254,4.0,7.0,74,0.00,,,0.00,VWS V14.01,2013-08-06 04:19:00,
2013-08-06 00:23:00,67.8,59.2,29.99,WSW,254,0.0,7.0,74,0.00,,,0.00,VWS V14.01,2013-08-06 04:23:00,
2013-08-06 00:24:00,67.8,59.2,29.99,WSW,252,4.0,7.0,74,0.00,,,0.00,VWS V14.01,2013-08-06 04:24:00,
2013-08-06 00:26:00,67.8,59.2,29.99,WSW,252,0.0,7.0,74,0.00,,,0.00,VWS V14.01,2013-08-06 04:26:00,
2013-08-06 00:28:00,67.8,59.2,29.99,WSW,252,0.0,7.0,74,0.00,,,0.00,VWS V14.01,2013-08-06 04:28:00,
2013-08-06 00:29:00,67.8,59.2,29.99,WSW,252,1.0,7.0,74,0.00,,,0.00,VWS V14.01,2013-08-06 04:29:00,
2013-08-06 00:32:00,67.6,59.4,29.99,WSW,253,0.0,7.0,75,0.00,,,0.00,VWS V14.01,2013-08-06 04:32:00,
2013-08-06 00:35:00,67.6,59.4,30.00,WSW,253,0.0,7.0,75,0.00,,,0.00,VWS V14.01,2013-08-06 04:35:00,
2013-08-06 00:37:00,67.6,59.4,30.00,WSW,254,3.0,5.0,75,0.00,,,0.00,VWS V14.01,2013-08-06 04:37:00,
2013-08-06 00:38:00,67.6,59.4,30.00,WSW,257,9.0,9.0,75,0.00,,,0.00,VWS V14.01,2013-08-06 04:38:00,
2013-08-06 00:39:00,67.6,59.4,30.00,WSW,252,3.0,9.0,75,0.00,,,0.00,VWS V14.01,2013-08-06 04:39:00,
2013-08-06 00:42:00,67.4,59.2,30.00,WSW,246,3.0,9.0,75,0.00,,,0.00,VWS V14.01,2013-08-06 04:42:00,
2013-08-06 00:43:00,67.4,59.2,30.00,WSW,252,7.0,9.0,75,0.00,,,0.00,VWS V14.01,2013-08-06 04:43:00,
2013-08-06 00:44:00,67.4,59.2,30.00,WSW,252,1.0,9.0,75,0.00,,,0.00,VWS V14.01,2013-08-06 04:44:00,
2013-08-06 00:48:00,67.4,59.6,30.00,WSW,253,0.0,9.0,76,0.00,,,0.00,VWS V14.01,2013-08-06 04:48:00,
2013-08-06 00:50:00,67.4,59.6,29.99,WSW,253,0.0,9.0,76,0.00,,,0.00,VWS V14.01,2013-08-06 04:50:00,
2013-08-06 00:53:00,67.3,59.5,29.99,WSW,252,0.0,9.0,76,0.00,,,0.00,VWS V14.01,2013-08-06 04:53:00,
2013-08-06 00:54:00,67.3,59.5,29.99,WSW,252,0.0,9.0,76,0.00,,,0.00,VWS V14.01,2013-08-06 04:54:00,
2013-08-06 00:55:00,67.3,59.5,29.99,WSW,252,0.0,9.0,76,0.00,,,0.00,VWS V14.01,2013-08-06 04:55:00,
2013-08-06 00:58:00,67.1,59.3,29.99,WSW,252,0.0,9.0,76,0.00,,,0.00,VWS V14.01,2013-08-06 04:58:00,
2013-08-06 01:01:00,67.1,59.3,29.99,WSW,252,0.0,9.0,76,0.00,,,0.00,VWS V14.01,2013-08-06 05:01:00,
2013-08-06 01:02:00,67.1,59.7,29.99,WSW,252,0.0,9.0,77,0.00,,,0.00,VWS V14.01,2013-08-06 05:02:00,
2013-08-06 01:03:00,66.9,59.5,29.99,WSW,252,0.0,9.0,77,0.00,,,0.00,VWS V14.01,2013-08-06 05:03:00,
2013-08-06 01:05:00,66.9,59.5,29.99,WSW,252,3.0,9.0,77,0.00,,,0.00,VWS V14.01,2013-08-06 05:05:00,
2013-08-06 01:06:00,66.9,59.5,29.99,WSW,254,4.0,6.0,77,0.00,,,0.00,VWS V14.01,2013-08-06 05:06:00,
2013-08-06 01:07:00,66.8,59.4,29.99,WSW,254,0.0,6.0,77,0.00,,,0.00,VWS V14.01,2013-08-06 05:07:00,
2013-08-06 01:10:00,66.6,59.2,29.99,WSW,254,0.0,6.0,77,0.00,,,0.00,VWS V14.01,2013-08-06 05:10:00,
2013-08-06 01:11:00,66.6,59.2,29.99,WSW,257,2.0,6.0,77,0.00,,,0.00,VWS V14.01,2013-08-06 05:11:00,
2013-08-06 01:12:00,66.6,59.2,29.99,WSW,257,0.0,6.0,77,0.00,,,0.00,VWS V14.01,2013-08-06 05:12:00,
2013-08-06 01:13:00,66.6,59.2,29.99,WSW,257,0.0,6.0,77,0.00,,,0.00,VWS V14.01,2013-08-06 05:13:00,
2013-08-06 01:15:00,66.4,59.0,29.99,WSW,257,0.0,6.0,77,0.00,,,0.00,VWS V14.01,2013-08-06 05:15:00,
2013-08-06 01:17:00,66.4,59.0,29.99,WSW,257,0.0,6.0,77,0.00,,,0.00,VWS V14.01,2013-08-06 05:17:00,
2013-08-06 01:18:00,66.4,59.0,29.99,WSW,257,0.0,6.0,77,0.00,,,0.00,VWS V14.01,2013-08-06 05:18:00,
2013-08-06 01:20:00,66.3,58.9,30.00,WSW,257,0.0,6.0,77,0.00,,,0.00,VWS V14.01,2013-08-06 05:20:00,
2013-08-06 01:22:00,66.3,58.9,30.00,WSW,257,0.0,6.0,77,0.00,,,0.00,VWS V14.01,2013-08-06 05:22:00,
2013-08-06 01:23:00,66.3,58.9,30.00,WSW,257,0.0,6.0,77,0.00,,,0.00,VWS V14.01,2013-08-06 05:23:00,
2013-08-06 01:24:00,66.1,58.7,30.00,WSW,257,0.0,6.0,77,0.00,,,0.00,VWS V14.01,2013-08-06 05:24:00,
2013-08-06 01:26:00,66.1,58.7,30.00,WSW,257,0.0,6.0,77,0.00,,,0.00,VWS V14.01,2013-08-06 05:26:00,
2013-08-06 01:27:00,66.1,59.0,30.00,WSW,257,0.0,6.0,78,0.00,,,0.00,VWS V14.01,2013-08-06 05:27:00,
2013-08-06 01:31:00,66.0,59.0,30.00,WSW,257,0.0,6.0,78,0.00,,,0.00,VWS V14.01,2013-08-06 05:31:00,
2013-08-06 01:32:00,66.0,59.0,30.00,WSW,257,0.0,6.0,78,0.00,,,0.00,VWS V14.01,2013-08-06 05:32:00,
2013-08-06 01:35:00,65.8,58.8,30.00,WSW,257,0.0,6.0,78,0.00,,,0.00,VWS V14.01,2013-08-06 05:35:00,
2013-08-06 01:37:00,65.8,58.8,30.00,WSW,257,0.0,0.0,78,0.00,,,0.00,VWS V14.01,2013-08-06 05:37:00,
2013-08-06 01:38:00,65.6,58.6,30.00,WSW,257,0.0,1.0,78,0.00,,,0.00,VWS V14.01,2013-08-06 05:38:00,
2013-08-06 01:39:00,65.6,58.6,30.00,WSW,257,0.0,4.0,78,0.00,,,0.00,VWS V14.01,2013-08-06 05:39:00,
2013-08-06 01:41:00,65.6,58.6,30.00,WSW,257,0.0,4.0,78,0.00,,,0.00,VWS V14.01,2013-08-06 05:41:00,
2013-08-06 01:42:00,65.6,58.6,30.00,WSW,257,0.0,4.0,78,0.00,,,0.00,VWS V14.01,2013-08-06 05:42:00,
2013-08-06 01:45:00,65.6,58.6,30.00,WSW,257,0.0,4.0,78,0.00,,,0.00,VWS V14.01,2013-08-06 05:45:00,
2013-08-06 01:46:00,65.6,58.6,30.00,WSW,257,0.0,4.0,78,0.00,,,0.00,VWS V14.01,2013-08-06 05:46:00,
2013-08-06 01:48:00,65.6,58.6,30.00,WSW,257,0.0,4.0,78,0.00,,,0.00,VWS V14.01,2013-08-06 05:48:00,
2013-08-06 01:51:00,65.6,58.6,30.00,WSW,257,0.0,4.0,78,0.00,,,0.00,VWS V14.01,2013-08-06 05:51:00,
2013-08-06 01:52:00,65.6,58.6,30.00,WSW,257,0.0,4.0,78,0.00,,,0.00,VWS V14.01,2013-08-06 05:52:00,
2013-08-06 01:56:00,65.5,58.5,30.00,WSW,257,0.0,4.0,78,0.00,,,0.00,VWS V14.01,2013-08-06 05:56:00,
2013-08-06 01:57:00,65.5,58.5,30.00,WSW,257,0.0,4.0,78,0.00,,,0.00,VWS V14.01,2013-08-06 05:57:00,
2013-08-06 01:59:00,65.5,58.5,30.00,WSW,257,0.0,4.0,78,0.00,,,0.00,VWS V14.01,2013-08-06 05:59:00,
2013-08-06 02:00:00,65.5,58.5,30.00,WSW,257,0.0,4.0,78,0.00,,,0.00,VWS V14.01,2013-08-06 06:00:00,
2013-08-06 02:01:00,65.5,58.5,30.00,WSW,257,4.0,4.0,78,0.00,,,0.00,VWS V14.01,2013-08-06 06:01:00,
2013-08-06 02:03:00,65.5,58.5,30.00,WSW,257,0.0,4.0,78,0.00,,,0.00,VWS V14.01,2013-08-06 06:03:00,
2013-08-06 02:05:00,65.5,58.5,30.00,WSW,257,0.0,4.0,78,0.00,,,0.00,VWS V14.01,2013-08-06 06:05:00,
2013-08-06 02:08:00,65.5,58.5,30.00,WSW,257,0.0,1.0,78,0.00,,,0.00,VWS V14.01,2013-08-06 06:08:00,
2013-08-06 02:09:00,65.5,58.5,30.00,WSW,257,0.0,1.0,78,0.00,,,0.00,VWS V14.01,2013-08-06 06:09:00,
2013-08-06 02:11:00,65.5,58.5,30.00,WSW,257,1.0,7.0,78,0.00,,,0.00,VWS V14.01,2013-08-06 06:11:00,
2013-08-06 02:12:00,65.5,58.5,30.00,WSW,257,0.0,7.0,78,0.00,,,0.00,VWS V14.01,2013-08-06 06:12:00,
2013-08-06 02:13:00,65.5,58.5,30.00,WSW,257,0.0,7.0,78,0.00,,,0.00,VWS V14.01,2013-08-06 06:13:00,
2013-08-06 02:14:00,65.5,58.5,30.00,WSW,257,0.0,7.0,78,0.00,,,0.00,VWS V14.01,2013-08-06 06:14:00,
2013-08-06 02:17:00,65.3,58.3,30.00,WSW,257,0.0,7.0,78,0.00,,,0.00,VWS V14.01,2013-08-06 06:17:00,
2013-08-06 02:18:00,65.3,58.3,30.00,WSW,257,0.0,7.0,78,0.00,,,0.00,VWS V14.01,2013-08-06 06:18:00,
2013-08-06 02:23:00,65.3,58.3,30.00,WSW,257,0.0,7.0,78,0.00,,,0.00,VWS V14.01,2013-08-06 06:23:00,
2013-08-06 02:25:00,65.3,58.3,30.00,WSW,257,0.0,7.0,78,0.00,,,0.00,VWS V14.01,2013-08-06 06:25:00,
2013-08-06 02:26:00,65.3,58.3,30.00,WSW,257,0.0,7.0,78,0.00,,,0.00,VWS V14.01,2013-08-06 06:26:00,
2013-08-06 02:27:00,65.3,58.3,30.00,WSW,257,0.0,7.0,78,0.00,,,0.00,VWS V14.01,2013-08-06 06:27:00,
2013-08-06 02:28:00,65.3,58.3,30.00,WSW,257,0.0,7.0,78,0.00,,,0.00,VWS V14.01,2013-08-06 06:28:00,
2013-08-06 02:29:00,65.3,58.3,30.00,WSW,257,0.0,7.0,78,0.00,,,0.00,VWS V14.01,2013-08-06 06:29:00,
2013-08-06 02:30:00,65.3,58.3,30.00,WSW,257,0.0,7.0,78,0.00,,,0.00,VWS V14.01,2013-08-06 06:30:00,
2013-08-06 02:32:00,65.3,58.3,30.00,WSW,257,0.0,7.0,78,0.00,,,0.00,VWS V14.01,2013-08-06 06:32:00,
2013-08-06 02:33:00,65.2,58.2,30.00,WSW,257,0.0,7.0,78,0.00,,,0.00,VWS V14.01,2013-08-06 06:33:00,
2013-08-06 02:34:00,65.2,58.2,30.00,WSW,257,0.0,7.0,78,0.00,,,0.00,VWS V14.01,2013-08-06 06:34:00,
2013-08-06 02:36:00,65.2,58.2,30.00,WSW,257,0.0,0.0,78,0.00,,,0.00,VWS V14.01,2013-08-06 06:36:00,
2013-08-06 02:40:00,65.2,58.2,30.00,WSW,257,0.0,0.0,78,0.00,,,0.00,VWS V14.01,2013-08-06 06:40:00,
2013-08-06 02:41:00,65.2,58.2,30.00,WSW,257,0.0,0.0,78,0.00,,,0.00,VWS V14.01,2013-08-06 06:41:00,
2013-08-06 02:42:00,65.2,58.2,30.00,WSW,257,0.0,0.0,78,0.00,,,0.00,VWS V14.01,2013-08-06 06:42:00,
2013-08-06 02:44:00,65.2,58.2,30.00,WSW,257,0.0,0.0,78,0.00,,,0.00,VWS V14.01,2013-08-06 06:44:00,
2013-08-06 02:46:00,65.0,58.0,30.00,WSW,257,0.0,0.0,78,0.00,,,0.00,VWS V14.01,2013-08-06 06:46:00,
2013-08-06 02:47:00,65.0,58.0,30.00,WSW,257,0.0,0.0,78,0.00,,,0.00,VWS V14.01,2013-08-06 06:47:00,
2013-08-06 02:49:00,65.0,58.0,30.00,WSW,257,0.0,0.0,78,0.00,,,0.00,VWS V14.01,2013-08-06 06:49:00,
2013-08-06 02:50:00,65.0,58.0,30.00,WSW,257,0.0,0.0,78,0.00,,,0.00,VWS V14.01,2013-08-06 06:50:00,
2013-08-06 02:54:00,64.8,57.8,30.00,WSW,257,0.0,0.0,78,0.00,,,0.00,VWS V14.01,2013-08-06 06:54:00,
2013-08-06 02:55:00,64.8,57.8,30.00,WSW,257,0.0,0.0,78,0.00,,,0.00,VWS V14.01,2013-08-06 06:55:00,
2013-08-06 02:56:00,64.8,57.8,30.00,WSW,257,0.0,0.0,78,0.00,,,0.00,VWS V14.01,2013-08-06 06:56:00,
2013-08-06 03:00:00,64.8,57.8,30.00,WSW,257,0.0,0.0,78,0.00,,,0.00,VWS V14.01,2013-08-06 07:00:00,
2013-08-06 03:02:00,64.7,57.7,30.00,WSW,257,0.0,3.0,78,0.00,,,0.00,VWS V14.01,2013-08-06 07:02:00,
2013-08-06 03:04:00,64.7,57.7,30.00,WSW,257,0.0,3.0,78,0.00,,,0.00,VWS V14.01,2013-08-06 07:04:00,
2013-08-06 03:07:00,64.7,57.3,30.00,WSW,257,0.0,0.0,77,0.00,,,0.00,VWS V14.01,2013-08-06 07:07:00,
2013-08-06 03:09:00,64.5,57.1,30.00,WSW,257,1.0,4.0,77,0.00,,,0.00,VWS V14.01,2013-08-06 07:09:00,
2013-08-06 03:10:00,64.5,57.1,30.00,WSW,257,0.0,4.0,77,0.00,,,0.00,VWS V14.01,2013-08-06 07:10:00,
2013-08-06 03:12:00,64.5,57.1,30.00,WSW,257,0.0,4.0,77,0.00,,,0.00,VWS V14.01,2013-08-06 07:12:00,
2013-08-06 03:13:00,64.5,57.1,30.00,WSW,257,0.0,4.0,77,0.00,,,0.00,VWS V14.01,2013-08-06 07:13:00,
2013-08-06 03:14:00,64.5,57.1,30.00,WSW,257,0.0,4.0,77,0.00,,,0.00,VWS V14.01,2013-08-06 07:14:00,
2013-08-06 03:15:00,64.5,57.1,30.00,WSW,257,0.0,4.0,77,0.00,,,0.00,VWS V14.01,2013-08-06 07:15:00,
2013-08-06 03:16:00,64.5,57.1,30.00,WSW,257,0.0,4.0,77,0.00,,,0.00,VWS V14.01,2013-08-06 07:16:00,
2013-08-06 03:18:00,64.5,57.1,30.00,WSW,257,0.0,4.0,77,0.00,,,0.00,VWS V14.01,2013-08-06 07:18:00,
2013-08-06 03:20:00,64.5,57.1,30.00,WSW,257,0.0,4.0,77,0.00,,,0.00,VWS V14.01,2013-08-06 07:20:00,
2013-08-06 03:23:00,64.5,56.8,30.00,WSW,257,0.0,4.0,76,0.00,,,0.00,VWS V14.01,2013-08-06 07:23:00,
2013-08-06 03:25:00,64.5,56.8,30.00,WSW,257,0.0,4.0,76,0.00,,,0.00,VWS V14.01,2013-08-06 07:25:00,
2013-08-06 03:26:00,64.5,56.8,30.00,WSW,257,0.0,4.0,76,0.00,,,0.00,VWS V14.01,2013-08-06 07:26:00,
2013-08-06 03:27:00,64.5,56.8,30.00,WSW,257,0.0,4.0,76,0.00,,,0.00,VWS V14.01,2013-08-06 07:27:00,
2013-08-06 03:30:00,64.5,56.8,30.00,WSW,257,0.0,4.0,76,0.00,,,0.00,VWS V14.01,2013-08-06 07:30:00,
2013-08-06 03:31:00,64.5,56.8,30.00,WSW,257,0.0,4.0,76,0.00,,,0.00,VWS V14.01,2013-08-06 07:31:00,
2013-08-06 03:32:00,64.5,56.8,30.00,WSW,257,0.0,4.0,76,0.00,,,0.00,VWS V14.01,2013-08-06 07:32:00,
2013-08-06 03:33:00,64.5,56.8,30.00,WSW,257,0.0,4.0,76,0.00,,,0.00,VWS V14.01,2013-08-06 07:33:00,
2013-08-06 03:34:00,64.5,56.8,30.00,WSW,257,0.0,4.0,76,0.00,,,0.00,VWS V14.01,2013-08-06 07:34:00,
2013-08-06 03:37:00,64.3,56.6,30.00,WSW,257,0.0,0.0,76,0.00,,,0.00,VWS V14.01,2013-08-06 07:37:00,
2013-08-06 03:40:00,64.3,56.6,30.00,WSW,257,0.0,3.0,76,0.00,,,0.00,VWS V14.01,2013-08-06 07:40:00,
2013-08-06 03:42:00,64.3,56.6,30.00,WSW,257,0.0,3.0,76,0.00,,,0.00,VWS V14.01,2013-08-06 07:42:00,
2013-08-06 03:45:00,64.2,56.5,30.00,WSW,257,0.0,3.0,76,0.00,,,0.00,VWS V14.01,2013-08-06 07:45:00,
2013-08-06 03:46:00,64.2,56.5,30.00,WSW,257,0.0,3.0,76,0.00,,,0.00,VWS V14.01,2013-08-06 07:46:00,
2013-08-06 03:47:00,64.2,56.5,30.00,WSW,257,0.0,3.0,76,0.00,,,0.00,VWS V14.01,2013-08-06 07:47:00,
2013-08-06 03:50:00,64.2,56.5,30.00,WSW,257,0.0,3.0,76,0.00,,,0.00,VWS V14.01,2013-08-06 07:50:00,
2013-08-06 03:52:00,64.0,56.3,30.00,WSW,257,0.0,3.0,76,0.00,,,0.00,VWS V14.01,2013-08-06 07:52:00,
2013-08-06 03:53:00,64.0,56.3,30.00,WSW,257,0.0,3.0,76,0.00,,,0.00,VWS V14.01,2013-08-06 07:53:00,
2013-08-06 03:55:00,64.0,56.3,30.00,WSW,257,0.0,3.0,76,0.00,,,0.00,VWS V14.01,2013-08-06 07:55:00,
2013-08-06 03:56:00,64.0,56.3,30.00,WSW,257,0.0,3.0,76,0.00,,,0.00,VWS V14.01,2013-08-06 07:56:00,
2013-08-06 03:58:00,63.9,55.8,30.00,WSW,257,0.0,4.0,75,0.00,,,0.00,VWS V14.01,2013-08-06 07:58:00,
2013-08-06 04:01:00,63.9,55.8,30.00,WSW,257,0.0,4.0,75,0.00,,,0.00,VWS V14.01,2013-08-06 08:01:00,
2013-08-06 04:02:00,63.9,55.8,30.00,WSW,257,0.0,4.0,75,0.00,,,0.00,VWS V14.01,2013-08-06 08:02:00,
2013-08-06 04:04:00,63.9,55.8,30.00,WSW,257,0.0,4.0,75,0.00,,,0.00,VWS V14.01,2013-08-06 08:04:00,
2013-08-06 04:06:00,63.9,55.8,30.00,WSW,257,0.0,5.0,75,0.00,,,0.00,VWS V14.01,2013-08-06 08:06:00,
2013-08-06 04:07:00,63.9,55.8,30.00,WSW,257,0.0,5.0,75,0.00,,,0.00,VWS V14.01,2013-08-06 08:07:00,
2013-08-06 04:09:00,63.9,55.5,30.00,WSW,257,4.0,5.0,74,0.00,,,0.00,VWS V14.01,2013-08-06 08:09:00,
2013-08-06 04:10:00,63.9,55.5,30.00,WSW,257,0.0,5.0,74,0.00,,,0.00,VWS V14.01,2013-08-06 08:10:00,
2013-08-06 04:11:00,63.9,55.5,30.00,WSW,257,2.0,5.0,74,0.00,,,0.00,VWS V14.01,2013-08-06 08:11:00,
2013-08-06 04:12:00,63.9,55.5,30.00,WSW,257,0.0,5.0,74,0.00,,,0.00,VWS V14.01,2013-08-06 08:12:00,
2013-08-06 04:13:00,63.9,55.5,30.00,WSW,257,0.0,5.0,74,0.00,,,0.00,VWS V14.01,2013-08-06 08:13:00,
2013-08-06 04:17:00,63.9,55.1,30.00,WSW,257,0.0,6.0,73,0.00,,,0.00,VWS V14.01,2013-08-06 08:17:00,
2013-08-06 04:18:00,63.9,55.1,30.00,WSW,257,0.0,6.0,73,0.00,,,0.00,VWS V14.01,2013-08-06 08:18:00,
2013-08-06 04:19:00,63.9,55.1,30.00,WSW,257,0.0,6.0,73,0.00,,,0.00,VWS V14.01,2013-08-06 08:19:00,
2013-08-06 04:23:00,63.9,55.1,30.00,WSW,257,3.0,6.0,73,0.00,,,0.00,VWS V14.01,2013-08-06 08:23:00,
2013-08-06 04:24:00,63.9,55.1,30.00,WSW,257,2.0,6.0,73,0.00,,,0.00,VWS V14.01,2013-08-06 08:24:00,
2013-08-06 04:25:00,63.7,54.9,30.00,WSW,257,0.0,6.0,73,0.00,,,0.00,VWS V14.01,2013-08-06 08:25:00,
2013-08-06 04:28:00,63.7,54.9,30.00,WSW,257,3.0,6.0,73,0.00,,,0.00,VWS V14.01,2013-08-06 08:28:00,
2013-08-06 04:29:00,63.7,54.9,30.00,WSW,257,0.0,6.0,73,0.00,,,0.00,VWS V14.01,2013-08-06 08:29:00,
2013-08-06 04:32:00,63.5,54.7,30.00,WSW,257,2.0,6.0,73,0.00,,,0.00,VWS V14.01,2013-08-06 08:32:00,
2013-08-06 04:35:00,63.5,54.7,30.00,WSW,257,1.0,6.0,73,0.00,,,0.00,VWS V14.01,2013-08-06 08:35:00,
2013-08-06 04:37:00,63.4,54.6,30.00,WSW,257,0.0,2.0,73,0.00,,,0.00,VWS V14.01,2013-08-06 08:37:00,
2013-08-06 04:40:00,63.4,54.6,30.00,WSW,257,0.0,3.0,73,0.00,,,0.00,VWS V14.01,2013-08-06 08:40:00,
2013-08-06 04:41:00,63.4,54.6,30.00,WSW,257,0.0,3.0,73,0.00,,,0.00,VWS V14.01,2013-08-06 08:41:00,
2013-08-06 04:42:00,63.2,54.4,30.00,WSW,257,0.0,3.0,73,0.00,,,0.00,VWS V14.01,2013-08-06 08:42:00,
2013-08-06 04:43:00,63.2,54.4,30.00,WSW,257,0.0,3.0,73,0.00,,,0.00,VWS V14.01,2013-08-06 08:43:00,
2013-08-06 04:44:00,63.2,54.4,30.00,WSW,257,0.0,3.0,73,0.00,,,0.00,VWS V14.01,2013-08-06 08:44:00,
2013-08-06 04:45:00,63.2,54.4,30.00,WSW,257,0.0,3.0,73,0.00,,,0.00,VWS V14.01,2013-08-06 08:45:00,
2013-08-06 04:46:00,63.2,54.4,30.00,WSW,257,0.0,3.0,73,0.00,,,0.00,VWS V14.01,2013-08-06 08:46:00,
2013-08-06 04:47:00,63.2,54.4,30.00,WSW,257,0.0,3.0,73,0.00,,,0.00,VWS V14.01,2013-08-06 08:47:00,
2013-08-06 04:49:00,63.2,54.4,30.00,WSW,257,0.0,3.0,73,0.00,,,0.00,VWS V14.01,2013-08-06 08:49:00,
2013-08-06 04:51:00,63.2,54.0,30.00,WSW,257,0.0,3.0,72,0.00,,,0.00,VWS V14.01,2013-08-06 08:51:00,
2013-08-06 04:52:00,63.2,54.0,30.00,WSW,257,0.0,3.0,72,0.00,,,0.00,VWS V14.01,2013-08-06 08:52:00,
2013-08-06 04:53:00,63.2,54.0,30.00,WSW,257,0.0,3.0,72,0.00,,,0.00,VWS V14.01,2013-08-06 08:53:00,
2013-08-06 04:56:00,63.1,53.9,30.00,WSW,257,0.0,3.0,72,0.00,,,0.00,VWS V14.01,2013-08-06 08:56:00,
2013-08-06 04:59:00,63.1,53.9,30.00,WSW,257,0.0,3.0,72,0.00,,,0.00,VWS V14.01,2013-08-06 08:59:00,
2013-08-06 05:00:00,63.1,53.9,30.00,WSW,257,0.0,3.0,72,0.00,,,0.00,VWS V14.01,2013-08-06 09:00:00,
2013-08-06 05:01:00,63.1,53.9,30.00,WSW,257,0.0,3.0,72,0.00,,,0.00,VWS V14.01,2013-08-06 09:01:00,
2013-08-06 05:05:00,62.9,53.8,30.00,WSW,257,0.0,3.0,72,0.00,,,0.00,VWS V14.01,2013-08-06 09:05:00,
2013-08-06 05:06:00,62.9,53.8,30.00,WSW,257,0.0,0.0,72,0.00,,,0.00,VWS V14.01,2013-08-06 09:06:00,
2013-08-06 05:07:00,62.9,53.8,30.00,WSW,257,0.0,0.0,72,0.00,,,0.00,VWS V14.01,2013-08-06 09:07:00,
2013-08-06 05:08:00,62.9,53.8,30.00,WSW,257,0.0,0.0,72,0.00,,,0.00,VWS V14.01,2013-08-06 09:08:00,
2013-08-06 05:13:00,62.7,53.5,30.00,WSW,257,0.0,5.0,72,0.00,,,0.00,VWS V14.01,2013-08-06 09:13:00,
2013-08-06 05:14:00,62.7,53.5,30.00,WSW,257,0.0,5.0,72,0.00,,,0.00,VWS V14.01,2013-08-06 09:14:00,
2013-08-06 05:15:00,62.7,53.5,30.00,WSW,257,0.0,5.0,72,0.00,,,0.00,VWS V14.01,2013-08-06 09:15:00,
2013-08-06 05:17:00,62.7,53.5,30.00,WSW,257,0.0,5.0,72,0.00,,,0.00,VWS V14.01,2013-08-06 09:17:00,
2013-08-06 05:20:00,62.7,53.5,30.01,WSW,257,0.0,5.0,72,0.00,,,0.00,VWS V14.01,2013-08-06 09:20:00,
2013-08-06 05:21:00,62.7,53.5,30.01,WSW,257,0.0,5.0,72,0.00,,,0.00,VWS V14.01,2013-08-06 09:21:00,
2013-08-06 05:25:00,62.7,53.5,30.01,WSW,257,0.0,7.0,72,0.00,,,0.00,VWS V14.01,2013-08-06 09:25:00,
2013-08-06 05:26:00,62.7,53.5,30.01,WSW,257,0.0,7.0,72,0.00,,,0.00,VWS V14.01,2013-08-06 09:26:00,
2013-08-06 05:30:00,62.9,53.8,30.01,WSW,257,0.0,7.0,72,0.00,,,0.00,VWS V14.01,2013-08-06 09:30:00,
2013-08-06 05:31:00,62.9,53.8,30.01,WSW,257,0.0,7.0,72,0.00,,,0.00,VWS V14.01,2013-08-06 09:31:00,
2013-08-06 05:32:00,62.9,53.8,30.01,WSW,257,0.0,7.0,72,0.00,,,0.00,VWS V14.01,2013-08-06 09:32:00,
2013-08-06 05:33:00,62.9,53.8,30.01,WSW,257,0.0,7.0,72,0.00,,,0.00,VWS V14.01,2013-08-06 09:33:00,
2013-08-06 05:34:00,62.9,53.8,30.01,WSW,257,3.0,7.0,72,0.00,,,0.00,VWS V14.01,2013-08-06 09:34:00,
2013-08-06 05:37:00,62.9,54.1,30.01,WSW,257,1.0,4.0,73,0.00,,,0.00,VWS V14.01,2013-08-06 09:37:00,
2013-08-06 05:38:00,62.9,54.1,30.01,WSW,257,0.0,4.0,73,0.00,,,0.00,VWS V14.01,2013-08-06 09:38:00,
2013-08-06 05:39:00,62.9,54.1,30.01,WSW,257,0.0,4.0,73,0.00,,,0.00,VWS V14.01,2013-08-06 09:39:00,
2013-08-06 05:42:00,62.9,54.1,30.01,WSW,257,0.0,4.0,73,0.00,,,0.00,VWS V14.01,2013-08-06 09:42:00,
2013-08-06 05:44:00,62.7,54.3,30.01,WSW,257,0.0,4.0,74,0.00,,,0.00,VWS V14.01,2013-08-06 09:44:00,
2013-08-06 05:45:00,62.7,54.3,30.01,WSW,257,0.0,4.0,74,0.00,,,0.00,VWS V14.01,2013-08-06 09:45:00,
2013-08-06 05:49:00,62.7,54.3,30.01,WSW,257,0.0,4.0,74,0.00,,,0.00,VWS V14.01,2013-08-06 09:49:00,
2013-08-06 05:50:00,62.6,54.2,30.01,WSW,257,0.0,4.0,74,0.00,,,0.00,VWS V14.01,2013-08-06 09:50:00,
2013-08-06 05:51:00,62.6,54.6,30.01,WSW,257,0.0,4.0,75,0.00,,,0.00,VWS V14.01,2013-08-06 09:51:00,
2013-08-06 05:54:00,62.6,54.6,30.01,WSW,257,0.0,5.0,75,0.00,,,0.00,VWS V14.01,2013-08-06 09:54:00,
2013-08-06 05:55:00,62.4,54.4,30.01,WSW,257,0.0,5.0,75,0.00,,,0.00,VWS V14.01,2013-08-06 09:55:00,
2013-08-06 05:58:00,62.4,54.8,30.01,WSW,257,0.0,6.0,76,0.00,,,0.00,VWS V14.01,2013-08-06 09:58:00,
2013-08-06 05:59:00,62.4,54.8,30.01,WSW,257,0.0,6.0,76,0.00,,,0.00,VWS V14.01,2013-08-06 09:59:00,
2013-08-06 06:01:00,62.4,54.8,30.01,WSW,257,0.0,6.0,76,0.00,,,0.00,VWS V14.01,2013-08-06 10:01:00,
2013-08-06 06:03:00,62.4,54.8,30.01,WSW,257,0.0,6.0,76,0.00,,,0.00,VWS V14.01,2013-08-06 10:03:00,
2013-08-06 06:05:00,62.3,54.7,30.02,WSW,257,0.0,6.0,76,0.00,,,0.00,VWS V14.01,2013-08-06 10:05:00,
2013-08-06 06:06:00,62.3,54.7,30.02,WSW,257,0.0,0.0,76,0.00,,,0.00,VWS V14.01,2013-08-06 10:06:00,
2013-08-06 06:07:00,62.3,54.7,30.02,WSW,257,0.0,0.0,76,0.00,,,0.00,VWS V14.01,2013-08-06 10:07:00,
2013-08-06 06:08:00,62.3,54.7,30.02,WSW,257,0.0,0.0,76,0.00,,,0.00,VWS V14.01,2013-08-06 10:08:00,
2013-08-06 06:09:00,62.3,55.0,30.02,WSW,257,0.0,0.0,77,0.00,,,0.00,VWS V14.01,2013-08-06 10:09:00,
2013-08-06 06:11:00,62.3,55.0,30.02,WSW,257,0.0,0.0,77,0.00,,,0.00,VWS V14.01,2013-08-06 10:11:00,
2013-08-06 06:14:00,62.1,54.8,30.02,WSW,257,0.0,0.0,77,0.00,,,0.00,VWS V14.01,2013-08-06 10:14:00,
2013-08-06 06:16:00,62.1,54.8,30.02,WSW,257,0.0,0.0,77,0.00,,,0.00,VWS V14.01,2013-08-06 10:16:00,
2013-08-06 06:18:00,62.0,55.1,30.02,WSW,257,0.0,0.0,78,0.00,,,0.00,VWS V14.01,2013-08-06 10:18:00,
2013-08-06 06:19:00,62.0,55.1,30.02,WSW,257,0.0,0.0,78,0.00,,,0.00,VWS V14.01,2013-08-06 10:19:00,
2013-08-06 06:20:00,62.0,55.1,30.02,WSW,257,0.0,0.0,78,0.00,,,0.00,VWS V14.01,2013-08-06 10:20:00,
2013-08-06 06:24:00,61.8,54.9,30.02,WSW,257,0.0,0.0,78,0.00,,,0.00,VWS V14.01,2013-08-06 10:24:00,
2013-08-06 06:25:00,61.8,54.9,30.02,WSW,257,0.0,0.0,78,0.00,,,0.00,VWS V14.01,2013-08-06 10:25:00,
2013-08-06 06:26:00,61.8,54.9,30.02,WSW,257,0.0,0.0,78,0.00,,,0.00,VWS V14.01,2013-08-06 10:26:00,
2013-08-06 06:30:00,61.8,54.9,30.02,WSW,257,0.0,6.0,78,0.00,,,0.00,VWS V14.01,2013-08-06 10:30:00,
2013-08-06 06:32:00,61.6,54.7,30.02,WSW,257,2.0,6.0,78,0.00,,,0.00,VWS V14.01,2013-08-06 10:32:00,
2013-08-06 06:33:00,61.6,54.7,30.02,WSW,257,0.0,6.0,78,0.00,,,0.00,VWS V14.01,2013-08-06 10:33:00,
2013-08-06 06:34:00,61.6,54.7,30.02,WSW,257,0.0,6.0,78,0.00,,,0.00,VWS V14.01,2013-08-06 10:34:00,
2013-08-06 06:39:00,61.6,54.7,30.02,WSW,257,1.0,1.0,78,0.00,,,0.00,VWS V14.01,2013-08-06 10:39:00,
2013-08-06 06:40:00,61.6,54.7,30.02,WSW,257,0.0,4.0,78,0.00,,,0.00,VWS V14.01,2013-08-06 10:40:00,
2013-08-06 06:42:00,61.6,54.7,30.02,WSW,257,3.0,5.0,78,0.00,,,0.00,VWS V14.01,2013-08-06 10:42:00,
2013-08-06 06:44:00,61.6,54.7,30.02,WSW,257,0.0,5.0,78,0.00,,,0.00,VWS V14.01,2013-08-06 10:44:00,
2013-08-06 06:46:00,61.6,54.7,30.02,WSW,257,0.0,5.0,78,0.00,,,0.00,VWS V14.01,2013-08-06 10:46:00,
2013-08-06 06:47:00,61.6,54.7,30.02,WSW,257,0.0,5.0,78,0.00,,,0.00,VWS V14.01,2013-08-06 10:47:00,
2013-08-06 06:51:00,61.6,54.7,30.02,WSW,257,0.0,5.0,78,0.00,,,0.00,VWS V14.01,2013-08-06 10:51:00,
2013-08-06 06:52:00,61.8,54.9,30.02,WSW,257,0.0,5.0,78,0.00,,,0.00,VWS V14.01,2013-08-06 10:52:00,
2013-08-06 06:56:00,61.8,54.9,30.02,WSW,257,0.0,5.0,78,0.00,,,0.00,VWS V14.01,2013-08-06 10:56:00,
2013-08-06 06:57:00,61.8,54.9,30.02,WSW,257,0.0,5.0,78,0.00,,,0.00,VWS V14.01,2013-08-06 10:57:00,
2013-08-06 07:00:00,62.0,55.1,30.02,WSW,257,0.0,5.0,78,0.00,,,0.00,VWS V14.01,2013-08-06 11:00:00,
2013-08-06 07:01:00,62.0,55.1,30.02,WSW,257,0.0,5.0,78,0.00,,,0.00,VWS V14.01,2013-08-06 11:01:00,
2013-08-06 07:03:00,62.1,55.2,30.02,WSW,257,0.0,5.0,78,0.00,,,0.00,VWS V14.01,2013-08-06 11:03:00,
2013-08-06 07:05:00,62.1,55.2,30.02,WSW,257,0.0,5.0,78,0.00,,,0.00,VWS V14.01,2013-08-06 11:05:00,
2013-08-06 07:06:00,62.1,55.2,30.02,WSW,257,0.0,0.0,78,0.00,,,0.00,VWS V14.01,2013-08-06 11:06:00,
2013-08-06 07:08:00,62.3,55.4,30.02,WSW,257,0.0,0.0,78,0.00,,,0.00,VWS V14.01,2013-08-06 11:08:00,
2013-08-06 07:10:00,62.3,55.4,30.02,WSW,257,0.0,0.0,78,0.00,,,0.00,VWS V14.01,2013-08-06 11:10:00,
2013-08-06 07:11:00,62.3,55.4,30.02,WSW,257,0.0,0.0,78,0.00,,,0.00,VWS V14.01,2013-08-06 11:11:00,
2013-08-06 07:13:00,62.4,55.1,30.02,WSW,257,0.0,0.0,77,0.00,,,0.00,VWS V14.01,2013-08-06 11:13:00,
2013-08-06 07:15:00,62.4,55.5,30.02,WSW,257,0.0,0.0,78,0.00,,,0.00,VWS V14.01,2013-08-06 11:15:00,
2013-08-06 07:17:00,62.4,55.5,30.02,WSW,257,0.0,0.0,78,0.00,,,0.00,VWS V14.01,2013-08-06 11:17:00,
2013-08-06 07:19:00,62.6,55.3,30.03,WSW,257,0.0,0.0,77,0.00,,,0.00,VWS V14.01,2013-08-06 11:19:00,
2013-08-06 07:23:00,62.7,55.4,30.03,WSW,257,0.0,0.0,77,0.00,,,0.00,VWS V14.01,2013-08-06 11:23:00,
2013-08-06 07:24:00,62.9,55.6,30.03,WSW,257,0.0,0.0,77,0.00,,,0.00,VWS V14.01,2013-08-06 11:24:00,
2013-08-06 07:25:00,62.9,55.6,30.03,WSW,257,0.0,0.0,77,0.00,,,0.00,VWS V14.01,2013-08-06 11:25:00,
2013-08-06 07:28:00,63.1,55.4,30.03,WSW,257,0.0,0.0,76,0.00,,,0.00,VWS V14.01,2013-08-06 11:28:00,
2013-08-06 07:30:00,63.2,55.5,30.03,WSW,257,0.0,0.0,76,0.00,,,0.00,VWS V14.01,2013-08-06 11:30:00,
2013-08-06 07:31:00,63.2,55.5,30.03,WSW,257,0.0,0.0,76,0.00,,,0.00,VWS V14.01,2013-08-06 11:31:00,
2013-08-06 07:34:00,63.4,55.7,30.03,WSW,257,0.0,0.0,76,0.00,,,0.00,VWS V14.01,2013-08-06 11:34:00,
2013-08-06 07:35:00,63.4,55.7,30.03,WSW,257,0.0,0.0,76,0.00,,,0.00,VWS V14.01,2013-08-06 11:35:00,
2013-08-06 07:38:00,63.7,55.6,30.03,WSW,257,0.0,0.0,75,0.00,,,0.00,VWS V14.01,2013-08-06 11:38:00,
2013-08-06 07:39:00,63.9,55.8,30.03,WSW,257,0.0,0.0,75,0.00,,,0.00,VWS V14.01,2013-08-06 11:39:00,
2013-08-06 07:42:00,64.2,55.8,30.03,WSW,257,0.0,0.0,74,0.00,,,0.00,VWS V14.01,2013-08-06 11:42:00,
2013-08-06 07:43:00,64.3,56.2,30.03,WSW,257,0.0,0.0,75,0.00,,,0.00,VWS V14.01,2013-08-06 11:43:00,
2013-08-06 07:48:00,64.8,56.0,30.03,WSW,257,0.0,0.0,73,0.00,,,0.00,VWS V14.01,2013-08-06 11:48:00,
2013-08-06 07:49:00,65.0,56.2,30.03,WSW,257,0.0,0.0,73,0.00,,,0.00,VWS V14.01,2013-08-06 11:49:00,
2013-08-06 07:51:00,65.5,55.9,30.03,WSW,257,0.0,0.0,71,0.00,,,0.00,VWS V14.01,2013-08-06 11:51:00,
2013-08-06 07:53:00,66.0,56.0,30.03,WSW,257,0.0,0.0,70,0.00,,,0.00,VWS V14.01,2013-08-06 11:53:00,
2013-08-06 07:54:00,66.1,56.4,30.03,WSW,257,0.0,0.0,71,0.00,,,0.00,VWS V14.01,2013-08-06 11:54:00,
2013-08-06 07:55:00,66.4,56.3,30.03,WSW,257,0.0,0.0,70,0.00,,,0.00,VWS V14.01,2013-08-06 11:55:00,
2013-08-06 07:56:00,66.6,56.9,30.03,WSW,257,0.0,0.0,71,0.00,,,0.00,VWS V14.01,2013-08-06 11:56:00,
2013-08-06 07:58:00,67.1,56.2,30.03,WSW,257,0.0,0.0,68,0.00,,,0.00,VWS V14.01,2013-08-06 11:58:00,
2013-08-06 08:00:00,67.6,56.7,30.03,WSW,257,0.0,0.0,68,0.00,,,0.00,VWS V14.01,2013-08-06 12:00:00,
2013-08-06 08:03:00,68.4,56.6,30.03,WSW,241,0.0,0.0,66,0.00,,,0.00,VWS V14.01,2013-08-06 12:03:00,
2013-08-06 08:05:00,68.8,57.4,30.03,WSW,241,0.0,0.0,67,0.00,,,0.00,VWS V14.01,2013-08-06 12:05:00,
2013-08-06 08:08:00,69.1,57.3,30.03,WSW,241,0.0,0.0,66,0.00,,,0.00,VWS V14.01,2013-08-06 12:08:00,
2013-08-06 08:09:00,69.3,57.5,30.03,WSW,241,0.0,0.0,66,0.00,,,0.00,VWS V14.01,2013-08-06 12:09:00,
2013-08-06 08:13:00,69.8,57.1,30.03,WSW,241,0.0,0.0,64,0.00,,,0.00,VWS V14.01,2013-08-06 12:13:00,
2013-08-06 08:15:00,70.3,57.6,30.03,WSW,241,0.0,0.0,64,0.00,,,0.00,VWS V14.01,2013-08-06 12:15:00,
2013-08-06 08:16:00,70.4,57.2,30.03,WSW,241,0.0,0.0,63,0.00,,,0.00,VWS V14.01,2013-08-06 12:16:00,
2013-08-06 08:19:00,70.6,57.0,30.03,WSW,238,0.0,0.0,62,0.00,,,0.00,VWS V14.01,2013-08-06 12:19:00,
2013-08-06 08:20:00,70.8,58.0,30.03,WSW,238,0.0,0.0,64,0.00,,,0.00,VWS V14.01,2013-08-06 12:20:00,
2013-08-06 08:21:00,70.8,57.2,30.03,WSW,238,0.0,0.0,62,0.00,,,0.00,VWS V14.01,2013-08-06 12:21:00,
2013-08-06 08:22:00,70.9,56.8,30.03,WSW,238,0.0,0.0,61,0.00,,,0.00,VWS V14.01,2013-08-06 12:22:00,
2013-08-06 08:26:00,71.5,57.4,30.03,SW,219,0.0,0.0,61,0.00,,,0.00,VWS V14.01,2013-08-06 12:26:00,
2013-08-06 08:27:00,71.6,57.5,30.03,SW,219,0.0,0.0,61,0.00,,,0.00,VWS V14.01,2013-08-06 12:27:00,
2013-08-06 08:29:00,72.0,57.8,30.03,SW,219,0.0,0.0,61,0.00,,,0.00,VWS V14.01,2013-08-06 12:29:00,
2013-08-06 08:31:00,72.1,58.4,30.03,SW,218,0.0,0.0,62,0.00,,,0.00,VWS V14.01,2013-08-06 12:31:00,
2013-08-06 08:32:00,72.1,58.4,30.03,SW,219,0.0,0.0,62,0.00,,,0.00,VWS V14.01,2013-08-06 12:32:00,
2013-08-06 08:33:00,72.3,58.1,30.03,SW,215,0.0,0.0,61,0.00,,,0.00,VWS V14.01,2013-08-06 12:33:00,
2013-08-06 08:34:00,72.5,58.3,30.03,SW,215,0.0,0.0,61,0.00,,,0.00,VWS V14.01,2013-08-06 12:34:00,
2013-08-06 08:36:00,72.7,57.6,30.03,SW,216,0.0,0.0,59,0.00,,,0.00,VWS V14.01,2013-08-06 12:36:00,
2013-08-06 08:39:00,72.8,58.1,30.03,SW,216,0.0,0.0,60,0.00,,,0.00,VWS V14.01,2013-08-06 12:39:00,
2013-08-06 08:41:00,73.0,58.8,30.03,South,186,0.0,0.0,61,0.00,,,0.00,VWS V14.01,2013-08-06 12:41:00,
2013-08-06 08:44:00,73.2,58.5,30.03,South,185,0.0,0.0,60,0.00,,,0.00,VWS V14.01,2013-08-06 12:44:00,
2013-08-06 08:46:00,73.2,58.5,30.03,South,184,0.0,0.0,60,0.00,,,0.00,VWS V14.01,2013-08-06 12:46:00,
2013-08-06 08:47:00,73.2,59.0,30.03,South,184,0.0,0.0,61,0.00,,,0.00,VWS V14.01,2013-08-06 12:47:00,
2013-08-06 08:50:00,73.0,58.8,30.03,South,184,0.0,0.0,61,0.00,,,0.00,VWS V14.01,2013-08-06 12:50:00,
2013-08-06 08:52:00,72.8,57.7,30.03,South,184,0.0,0.0,59,0.00,,,0.00,VWS V14.01,2013-08-06 12:52:00,
2013-08-06 08:54:00,73.2,59.9,30.03,South,183,0.0,0.0,63,0.00,,,0.00,VWS V14.01,2013-08-06 12:54:00,
2013-08-06 08:55:00,73.2,59.9,30.03,South,183,0.0,0.0,63,0.00,,,0.00,VWS V14.01,2013-08-06 12:55:00,
2013-08-06 08:59:00,73.3,60.0,30.03,South,180,0.0,1.0,63,0.00,,,0.00,VWS V14.01,2013-08-06 12:59:00,
2013-08-06 09:00:00,73.5,59.7,30.03,South,180,0.0,2.0,62,0.00,,,0.00,VWS V14.01,2013-08-06 13:00:00,
2013-08-06 09:04:00,73.9,60.1,30.03,South,178,0.0,2.0,62,0.00,,,0.00,VWS V14.01,2013-08-06 13:04:00,
2013-08-06 09:05:00,73.9,59.6,30.03,South,178,0.0,2.0,61,0.00,,,0.00,VWS V14.01,2013-08-06 13:05:00,
2013-08-06 09:06:00,73.9,59.6,30.03,South,178,0.0,0.0,61,0.00,,,0.00,VWS V14.01,2013-08-06 13:06:00,
2013-08-06 09:07:00,74.0,59.7,30.03,South,178,0.0,1.0,61,0.00,,,0.00,VWS V14.01,2013-08-06 13:07:00,
2013-08-06 09:09:00,74.2,60.8,30.03,South,178,0.0,1.0,63,0.00,,,0.00,VWS V14.01,2013-08-06 13:09:00,
2013-08-06 09:12:00,74.2,59.9,30.03,South,177,0.0,1.0,61,0.00,,,0.00,VWS V14.01,2013-08-06 13:12:00,
2013-08-06 09:13:00,74.2,60.4,30.03,South,176,1.0,1.0,62,0.00,,,0.00,VWS V14.01,2013-08-06 13:13:00,
2013-08-06 09:14:00,74.2,59.9,30.03,South,176,0.0,1.0,61,0.00,,,0.00,VWS V14.01,2013-08-06 13:14:00,
2013-08-06 09:16:00,74.2,59.9,30.03,ESE,118,0.0,1.0,61,0.00,,,0.00,VWS V14.01,2013-08-06 13:16:00,
2013-08-06 09:17:00,74.4,61.0,30.03,ESE,118,0.0,1.0,63,0.00,,,0.00,VWS V14.01,2013-08-06 13:17:00,
2013-08-06 09:18:00,74.2,59.0,30.03,ESE,118,0.0,1.0,59,0.00,,,0.00,VWS V14.01,2013-08-06 13:18:00,
2013-08-06 09:21:00,74.4,60.5,30.04,ESE,116,0.0,4.0,62,0.00,,,0.00,VWS V14.01,2013-08-06 13:21:00,
2013-08-06 09:22:00,74.6,60.3,30.04,ESE,115,0.0,4.0,61,0.00,,,0.00,VWS V14.01,2013-08-06 13:22:00,
2013-08-06 09:23:00,74.7,60.8,30.04,ESE,115,0.0,4.0,62,0.00,,,0.00,VWS V14.01,2013-08-06 13:23:00,
2013-08-06 09:27:00,75.3,60.5,30.04,ESE,111,0.0,4.0,60,0.00,,,0.00,VWS V14.01,2013-08-06 13:27:00,
2013-08-06 09:29:00,75.4,59.6,30.04,ESE,111,0.0,4.0,58,0.00,,,0.00,VWS V14.01,2013-08-06 13:29:00,
2013-08-06 09:30:00,75.4,60.6,30.04,ESE,111,0.0,4.0,60,0.00,,,0.00,VWS V14.01,2013-08-06 13:30:00,
2013-08-06 09:31:00,75.4,60.6,30.04,ESE,110,0.0,4.0,60,0.00,,,0.00,VWS V14.01,2013-08-06 13:31:00,
2013-08-06 09:34:00,75.3,60.0,30.04,ESE,109,1.0,4.0,59,0.00,,,0.00,VWS V14.01,2013-08-06 13:34:00,
2013-08-06 09:35:00,75.3,60.5,30.05,ESE,107,0.0,4.0,60,0.00,,,0.00,VWS V14.01,2013-08-06 13:35:00,
2013-08-06 09:38:00,75.4,59.6,30.05,East,98,0.0,4.0,58,0.00,,,0.00,VWS V14.01,2013-08-06 13:38:00,
2013-08-06 09:40:00,75.6,60.3,30.05,East,99,0.0,4.0,59,0.00,,,0.00,VWS V14.01,2013-08-06 13:40:00,
2013-08-06 09:41:00,75.6,60.3,30.05,East,98,0.0,4.0,59,0.00,,,0.00,VWS V14.01,2013-08-06 13:41:00,
2013-08-06 09:43:00,75.6,60.3,30.05,East,98,0.0,4.0,59,0.00,,,0.00,VWS V14.01,2013-08-06 13:43:00,
2013-08-06 09:44:00,75.6,60.3,30.05,East,98,0.0,4.0,59,0.00,,,0.00,VWS V14.01,2013-08-06 13:44:00,
2013-08-06 09:47:00,75.1,60.3,30.05,East,97,0.0,4.0,60,0.00,,,0.00,VWS V14.01,2013-08-06 13:47:00,
2013-08-06 09:50:00,75.3,60.9,30.05,East,96,0.0,4.0,61,0.00,,,0.00,VWS V14.01,2013-08-06 13:50:00,
2013-08-06 09:51:00,75.4,60.6,30.05,East,98,0.0,4.0,60,0.00,,,0.00,VWS V14.01,2013-08-06 13:51:00,
2013-08-06 09:52:00,75.4,60.1,30.05,East,99,0.0,4.0,59,0.00,,,0.00,VWS V14.01,2013-08-06 13:52:00,
2013-08-06 09:53:00,75.1,59.3,30.05,East,100,2.0,4.0,58,0.00,,,0.00,VWS V14.01,2013-08-06 13:53:00,
2013-08-06 09:57:00,75.1,61.2,30.05,East,101,0.0,4.0,62,0.00,,,0.00,VWS V14.01,2013-08-06 13:57:00,
2013-08-06 09:58:00,75.1,59.8,30.05,East,101,1.0,4.0,59,0.00,,,0.00,VWS V14.01,2013-08-06 13:58:00,
2013-08-06 09:59:00,75.3,60.0,30.05,East,101,0.0,4.0,59,0.00,,,0.00,VWS V14.01,2013-08-06 13:59:00,
2013-08-06 10:01:00,75.4,62.4,30.05,East,101,0.0,4.0,64,0.00,,,0.00,VWS V14.01,2013-08-06 14:01:00,
2013-08-06 10:02:00,75.4,62.4,30.05,East,101,0.0,4.0,64,0.00,,,0.00,VWS V14.01,2013-08-06 14:02:00,
2013-08-06 10:03:00,75.6,60.8,30.05,East,101,0.0,4.0,60,0.00,,,0.00,VWS V14.01,2013-08-06 14:03:00,
2013-08-06 10:04:00,75.6,60.8,30.05,East,101,0.0,4.0,60,0.00,,,0.00,VWS V14.01,2013-08-06 14:04:00,
2013-08-06 10:07:00,75.8,60.5,30.05,East,101,0.0,2.0,59,0.00,,,0.00,VWS V14.01,2013-08-06 14:07:00,
2013-08-06 10:08:00,75.8,60.9,30.05,East,101,0.0,2.0,60,0.00,,,0.00,VWS V14.01,2013-08-06 14:08:00,
2013-08-06 10:09:00,75.4,59.6,30.05,East,101,0.0,2.0,58,0.00,,,0.00,VWS V14.01,2013-08-06 14:09:00,
2013-08-06 10:12:00,75.6,59.8,30.05,East,100,0.0,2.0,58,0.00,,,0.00,VWS V14.01,2013-08-06 14:12:00,
2013-08-06 10:13:00,75.6,59.8,30.05,East,100,0.0,4.0,58,0.00,,,0.00,VWS V14.01,2013-08-06 14:13:00,
2013-08-06 10:14:00,75.6,59.3,30.05,East,100,0.0,4.0,57,0.00,,,0.00,VWS V14.01,2013-08-06 14:14:00,
2013-08-06 10:15:00,75.8,60.5,30.05,East,100,0.0,4.0,59,0.00,,,0.00,VWS V14.01,2013-08-06 14:15:00,
2013-08-06 10:19:00,75.8,60.0,30.05,East,101,0.0,4.0,58,0.00,,,0.00,VWS V14.01,2013-08-06 14:19:00,
2013-08-06 10:20:00,75.8,59.5,30.05,East,101,0.0,4.0,57,0.00,,,0.00,VWS V14.01,2013-08-06 14:20:00,
2013-08-06 10:22:00,75.8,60.0,30.05,East,99,0.0,4.0,58,0.00,,,0.00,VWS V14.01,2013-08-06 14:22:00,
2013-08-06 10:24:00,75.6,60.8,30.05,East,100,1.0,4.0,60,0.00,,,0.00,VWS V14.01,2013-08-06 14:24:00,
2013-08-06 10:26:00,75.8,62.8,30.05,East,100,0.0,4.0,64,0.00,,,0.00,VWS V14.01,2013-08-06 14:26:00,
2013-08-06 10:27:00,76.0,63.0,30.05,East,100,1.0,4.0,64,0.00,,,0.00,VWS V14.01,2013-08-06 14:27:00,
2013-08-06 10:30:00,75.8,59.0,30.05,East,101,0.0,4.0,56,0.00,,,0.00,VWS V14.01,2013-08-06 14:30:00,
2013-08-06 10:31:00,76.0,59.7,30.05,East,101,0.0,4.0,57,0.00,,,0.00,VWS V14.01,2013-08-06 14:31:00,
2013-08-06 10:32:00,76.0,60.7,30.05,East,101,0.0,4.0,59,0.00,,,0.00,VWS V14.01,2013-08-06 14:32:00,
2013-08-06 10:34:00,75.6,58.8,30.06,East,101,0.0,4.0,56,0.00,,,0.00,VWS V14.01,2013-08-06 14:34:00,
2013-08-06 10:36:00,75.4,60.1,30.06,East,101,0.0,1.0,59,0.00,,,0.00,VWS V14.01,2013-08-06 14:36:00,
2013-08-06 10:38:00,75.8,60.9,30.06,ESE,103,0.0,1.0,60,0.00,,,0.00,VWS V14.01,2013-08-06 14:38:00,
2013-08-06 10:41:00,75.4,60.1,30.06,ESE,103,0.0,2.0,59,0.00,,,0.00,VWS V14.01,2013-08-06 14:41:00,
2013-08-06 10:42:00,75.6,61.7,30.06,ESE,103,0.0,2.0,62,0.00,,,0.00,VWS V14.01,2013-08-06 14:42:00,
2013-08-06 10:43:00,76.0,62.0,30.06,ESE,104,1.0,2.0,62,0.00,,,0.00,VWS V14.01,2013-08-06 14:43:00,
2013-08-06 10:44:00,76.1,60.3,30.06,ESE,105,0.0,2.0,58,0.00,,,0.00,VWS V14.01,2013-08-06 14:44:00,
2013-08-06 10:47:00,76.7,60.3,30.06,ESE,105,0.0,5.0,57,0.00,,,0.00,VWS V14.01,2013-08-06 14:47:00,
2013-08-06 10:49:00,77.0,60.6,30.06,ESE,105,2.0,5.0,57,0.00,,,0.00,VWS V14.01,2013-08-06 14:49:00,
2013-08-06 10:50:00,77.2,60.3,30.06,ESE,105,0.0,5.0,56,0.00,,,0.00,VWS V14.01,2013-08-06 14:50:00,
2013-08-06 10:51:00,77.2,60.3,30.06,ESE,105,0.0,5.0,56,0.00,,,0.00,VWS V14.01,2013-08-06 14:51:00,
2013-08-06 10:52:00,77.6,62.2,30.06,ESE,105,0.0,5.0,59,0.00,,,0.00,VWS V14.01,2013-08-06 14:52:00,
2013-08-06 10:56:00,77.4,59.5,30.06,East,100,0.0,6.0,54,0.00,,,0.00,VWS V14.01,2013-08-06 14:56:00,
2013-08-06 10:57:00,77.4,59.5,30.06,East,101,0.0,6.0,54,0.00,,,0.00,VWS V14.01,2013-08-06 14:57:00,
2013-08-06 10:59:00,77.0,59.6,30.06,ESE,105,0.0,6.0,55,0.00,,,0.00,VWS V14.01,2013-08-06 14:59:00,
2013-08-06 11:01:00,76.7,59.3,30.06,ESE,104,0.0,6.0,55,0.00,,,0.00,VWS V14.01,2013-08-06 15:01:00,
2013-08-06 11:02:00,76.7,59.3,30.06,ESE,105,1.0,6.0,55,0.00,,,0.00,VWS V14.01,2013-08-06 15:02:00,
2013-08-06 11:03:00,76.7,59.3,30.06,ESE,106,0.0,6.0,55,0.00,,,0.00,VWS V14.01,2013-08-06 15:03:00,
2013-08-06 11:04:00,77.0,61.1,30.06,ESE,106,0.0,6.0,58,0.00,,,0.00,VWS V14.01,2013-08-06 15:04:00,
2013-08-06 11:07:00,77.6,60.2,30.06,ESE,107,0.0,1.0,55,0.00,,,0.00,VWS V14.01,2013-08-06 15:07:00,
2013-08-06 11:08:00,77.7,60.8,30.06,ESE,111,2.0,7.0,56,0.00,,,0.00,VWS V14.01,2013-08-06 15:08:00,
2013-08-06 11:09:00,77.9,61.0,30.06,ESE,111,4.0,7.0,56,0.00,,,0.00,VWS V14.01,2013-08-06 15:09:00,
2013-08-06 11:10:00,77.9,60.5,30.06,ESE,111,0.0,7.0,55,0.00,,,0.00,VWS V14.01,2013-08-06 15:10:00,
2013-08-06 11:11:00,77.9,59.9,30.06,ESE,111,0.0,7.0,54,0.00,,,0.00,VWS V14.01,2013-08-06 15:11:00,
2013-08-06 11:14:00,78.1,60.1,30.06,ESE,104,0.0,7.0,54,0.00,,,0.00,VWS V14.01,2013-08-06 15:14:00,
2013-08-06 11:15:00,77.7,59.2,30.06,ESE,110,0.0,7.0,53,0.00,,,0.00,VWS V14.01,2013-08-06 15:15:00,
2013-08-06 11:16:00,77.7,60.8,30.06,ESE,110,0.0,7.0,56,0.00,,,0.00,VWS V14.01,2013-08-06 15:16:00,
2013-08-06 11:17:00,77.4,60.0,30.06,ESE,110,4.0,7.0,55,0.00,,,0.00,VWS V14.01,2013-08-06 15:17:00,
2013-08-06 11:21:00,77.6,60.2,30.06,ESE,111,0.0,7.0,55,0.00,,,0.00,VWS V14.01,2013-08-06 15:21:00,
2013-08-06 11:23:00,77.4,61.0,30.06,ESE,108,0.0,7.0,57,0.00,,,0.00,VWS V14.01,2013-08-06 15:23:00,
2013-08-06 11:24:00,77.4,60.0,30.06,ESE,102,0.0,7.0,55,0.00,,,0.00,VWS V14.01,2013-08-06 15:24:00,
2013-08-06 11:25:00,77.4,62.0,30.06,ESE,102,0.0,7.0,59,0.00,,,0.00,VWS V14.01,2013-08-06 15:25:00,
2013-08-06 11:27:00,77.6,60.7,30.06,ESE,105,5.0,7.0,56,0.00,,,0.00,VWS V14.01,2013-08-06 15:27:00,
2013-08-06 11:29:00,77.4,60.5,30.06,ESE,110,0.0,7.0,56,0.00,,,0.00,VWS V14.01,2013-08-06 15:29:00,
2013-08-06 11:30:00,77.6,61.2,30.06,ESE,108,5.0,7.0,57,0.00,,,0.00,VWS V14.01,2013-08-06 15:30:00,
2013-08-06 11:32:00,77.7,61.3,30.06,ESE,110,0.0,7.0,57,0.00,,,0.00,VWS V14.01,2013-08-06 15:32:00,
2013-08-06 11:35:00,77.7,62.2,30.06,ESE,110,0.0,7.0,59,0.00,,,0.00,VWS V14.01,2013-08-06 15:35:00,
2013-08-06 11:36:00,77.9,61.0,30.06,ESE,111,0.0,5.0,56,0.00,,,0.00,VWS V14.01,2013-08-06 15:36:00,
2013-08-06 11:39:00,78.1,60.6,30.06,ESE,109,1.0,5.0,55,0.00,,,0.00,VWS V14.01,2013-08-06 15:39:00,
2013-08-06 11:40:00,78.1,59.6,30.06,ESE,109,0.0,5.0,53,0.00,,,0.00,VWS V14.01,2013-08-06 15:40:00,
2013-08-06 11:41:00,78.5,60.0,30.06,ESE,110,0.0,5.0,53,0.00,,,0.00,VWS V14.01,2013-08-06 15:41:00,
2013-08-06 11:42:00,78.6,63.1,30.06,ESE,110,0.0,5.0,59,0.00,,,0.00,VWS V14.01,2013-08-06 15:42:00,
2013-08-06 11:46:00,79.4,61.8,30.06,ESE,116,5.0,7.0,55,0.00,,,0.00,VWS V14.01,2013-08-06 15:46:00,
2013-08-06 11:47:00,79.6,61.5,30.06,ESE,123,6.0,8.0,54,0.00,,,0.00,VWS V14.01,2013-08-06 15:47:00,
2013-08-06 11:48:00,79.8,60.6,30.06,ESE,123,0.0,8.0,52,0.00,,,0.00,VWS V14.01,2013-08-06 15:48:00,
2013-08-06 11:51:00,79.8,60.1,30.07,SE,126,4.0,8.0,51,0.00,,,0.00,VWS V14.01,2013-08-06 15:51:00,
2013-08-06 11:52:00,79.6,59.9,30.07,SE,132,0.0,9.0,51,0.00,,,0.00,VWS V14.01,2013-08-06 15:52:00,
2013-08-06 11:55:00,79.4,59.7,30.07,SE,135,0.0,9.0,51,0.00,,,0.00,VWS V14.01,2013-08-06 15:55:00,
2013-08-06 11:56:00,79.4,60.8,30.07,ESE,113,4.0,9.0,53,0.00,,,0.00,VWS V14.01,2013-08-06 15:56:00,
2013-08-06 11:57:00,79.2,59.5,30.07,ESE,120,2.0,9.0,51,0.00,,,0.00,VWS V14.01,2013-08-06 15:57:00,
2013-08-06 11:58:00,79.2,61.1,30.07,SE,128,7.0,9.0,54,0.00,,,0.00,VWS V14.01,2013-08-06 15:58:00,
2013-08-06 12:01:00,79.0,59.9,30.07,SE,132,7.0,9.0,52,0.00,,,0.00,VWS V14.01,2013-08-06 16:01:00,
2013-08-06 12:02:00,78.8,59.7,30.07,SE,132,1.0,9.0,52,0.00,,,0.00,VWS V14.01,2013-08-06 16:02:00,
2013-08-06 12:03:00,79.0,61.5,30.07,ESE,115,5.0,9.0,55,0.00,,,0.00,VWS V14.01,2013-08-06 16:03:00,
2013-08-06 12:05:00,79.4,61.8,30.07,ESE,122,5.0,6.0,55,0.00,,,0.00,VWS V14.01,2013-08-06 16:05:00,
2013-08-06 12:08:00,79.9,62.3,30.07,SE,143,2.0,7.0,55,0.00,,,0.00,VWS V14.01,2013-08-06 16:08:00,
2013-08-06 12:09:00,79.9,62.3,30.07,SE,142,5.0,7.0,55,0.00,,,0.00,VWS V14.01,2013-08-06 16:09:00,
2013-08-06 12:10:00,79.8,61.7,30.07,SE,141,6.0,7.0,54,0.00,,,0.00,VWS V14.01,2013-08-06 16:10:00,
2013-08-06 12:13:00,79.4,61.3,30.07,SE,142,6.0,8.0,54,0.00,,,0.00,VWS V14.01,2013-08-06 16:13:00,
2013-08-06 12:14:00,79.6,62.0,30.07,SE,134,9.0,9.0,55,0.00,,,0.00,VWS V14.01,2013-08-06 16:14:00,
2013-08-06 12:16:00,79.6,62.0,30.07,SSE,150,4.0,11.0,55,0.00,,,0.00,VWS V14.01,2013-08-06 16:16:00,
2013-08-06 12:17:00,79.8,63.2,30.07,SSE,147,6.0,11.0,57,0.00,,,0.00,VWS V14.01,2013-08-06 16:17:00,
2013-08-06 12:19:00,79.9,63.8,30.07,SE,140,2.0,11.0,58,0.00,,,0.00,VWS V14.01,2013-08-06 16:19:00,
2013-08-06 12:20:00,79.9,63.8,30.07,SE,140,7.0,11.0,58,0.00,,,0.00,VWS V14.01,2013-08-06 16:20:00,
2013-08-06 12:21:00,80.1,62.5,30.07,SE,140,4.0,11.0,55,0.00,,,0.00,VWS V14.01,2013-08-06 16:21:00,
2013-08-06 12:22:00,80.1,61.4,30.07,SE,136,6.0,11.0,53,0.00,,,0.00,VWS V14.01,2013-08-06 16:22:00,
2013-08-06 12:24:00,80.1,62.0,30.07,SE,134,1.0,11.0,54,0.00,,,0.00,VWS V14.01,2013-08-06 16:24:00,
2013-08-06 12:28:00,80.3,61.6,30.07,SSE,157,5.0,11.0,53,0.00,,,0.00,VWS V14.01,2013-08-06 16:28:00,
2013-08-06 12:31:00,79.6,59.9,30.07,SE,142,8.0,11.0,51,0.00,,,0.00,VWS V14.01,2013-08-06 16:31:00,
2013-08-06 12:33:00,79.4,60.3,30.07,SE,144,8.0,11.0,52,0.00,,,0.00,VWS V14.01,2013-08-06 16:33:00,
2013-08-06 12:34:00,79.4,60.8,30.08,SSE,147,8.0,11.0,53,0.00,,,0.00,VWS V14.01,2013-08-06 16:34:00,
2013-08-06 12:35:00,79.4,60.8,30.08,SE,140,6.0,11.0,53,0.00,,,0.00,VWS V14.01,2013-08-06 16:35:00,
2013-08-06 12:39:00,79.8,61.7,30.08,SE,134,6.0,12.0,54,0.00,,,0.00,VWS V14.01,2013-08-06 16:39:00,
2013-08-06 12:40:00,79.8,60.6,30.08,SE,134,5.0,12.0,52,0.00,,,0.00,VWS V14.01,2013-08-06 16:40:00,
2013-08-06 12:41:00,79.9,61.8,30.08,SE,145,6.0,12.0,54,0.00,,,0.00,VWS V14.01,2013-08-06 16:41:00,
2013-08-06 12:43:00,80.1,61.4,30.08,SE,140,6.0,12.0,53,0.00,,,0.00,VWS V14.01,2013-08-06 16:43:00,
2013-08-06 12:45:00,80.7,63.0,30.08,SE,127,6.0,12.0,55,0.00,,,0.00,VWS V14.01,2013-08-06 16:45:00,
2013-08-06 12:47:00,80.9,61.6,30.08,SE,131,5.0,12.0,52,0.00,,,0.00,VWS V14.01,2013-08-06 16:47:00,
2013-08-06 12:50:00,80.9,63.2,30.08,ESE,119,5.0,12.0,55,0.00,,,0.00,VWS V14.01,2013-08-06 16:50:00,
2013-08-06 12:51:00,80.9,61.1,30.08,ESE,123,1.0,12.0,51,0.00,,,0.00,VWS V14.01,2013-08-06 16:51:00,
2013-08-06 12:53:00,80.5,60.7,30.08,SE,144,8.0,12.0,51,0.00,,,0.00,VWS V14.01,2013-08-06 16:53:00,
2013-08-06 12:54:00,80.7,62.5,30.08,SSE,157,6.0,12.0,54,0.00,,,0.00,VWS V14.01,2013-08-06 16:54:00,
2013-08-06 12:55:00,80.5,61.8,30.08,SE,140,9.0,12.0,53,0.00,,,0.00,VWS V14.01,2013-08-06 16:55:00,
2013-08-06 12:58:00,80.1,62.5,30.08,SSE,152,9.0,12.0,55,0.00,,,0.00,VWS V14.01,2013-08-06 16:58:00,
2013-08-06 13:00:00,79.9,63.3,30.08,SE,136,7.0,12.0,57,0.00,,,0.00,VWS V14.01,2013-08-06 17:00:00,
2013-08-06 13:03:00,79.8,61.7,30.08,SSE,155,5.0,12.0,54,0.00,,,0.00,VWS V14.01,2013-08-06 17:03:00,
2013-08-06 13:05:00,79.8,62.2,30.08,SSE,156,7.0,12.0,55,0.00,,,0.00,VWS V14.01,2013-08-06 17:05:00,
2013-08-06 13:08:00,79.8,61.7,30.08,ESE,123,6.0,11.0,54,0.00,,,0.00,VWS V14.01,2013-08-06 17:08:00,
2013-08-06 13:09:00,79.6,62.5,30.08,SSE,150,8.0,11.0,56,0.00,,,0.00,VWS V14.01,2013-08-06 17:09:00,
2013-08-06 13:10:00,79.6,62.5,30.08,SE,142,8.0,11.0,56,0.00,,,0.00,VWS V14.01,2013-08-06 17:10:00,
2013-08-06 13:11:00,79.6,61.5,30.08,SSE,154,7.0,11.0,54,0.00,,,0.00,VWS V14.01,2013-08-06 17:11:00,
2013-08-06 13:14:00,79.6,59.9,30.08,SE,146,4.0,11.0,51,0.00,,,0.00,VWS V14.01,2013-08-06 17:14:00,
2013-08-06 13:17:00,79.9,61.3,30.08,SE,146,7.0,11.0,53,0.00,,,0.00,VWS V14.01,2013-08-06 17:17:00,
2013-08-06 13:18:00,80.3,62.2,30.08,SE,146,2.0,11.0,54,0.00,,,0.00,VWS V14.01,2013-08-06 17:18:00,
2013-08-06 13:20:00,80.9,62.2,30.07,SE,146,10.0,13.0,53,0.00,,,0.00,VWS V14.01,2013-08-06 17:20:00,
2013-08-06 13:22:00,80.9,61.6,30.07,SSE,151,8.0,14.0,52,0.00,,,0.00,VWS V14.01,2013-08-06 17:22:00,
2013-08-06 13:25:00,80.9,61.1,30.07,SSE,153,8.0,14.0,51,0.00,,,0.00,VWS V14.01,2013-08-06 17:25:00,
2013-08-06 13:27:00,80.9,62.2,30.07,SSE,149,5.0,14.0,53,0.00,,,0.00,VWS V14.01,2013-08-06 17:27:00,
2013-08-06 13:28:00,80.9,61.1,30.07,SE,138,5.0,14.0,51,0.00,,,0.00,VWS V14.01,2013-08-06 17:28:00,
2013-08-06 13:31:00,81.2,61.4,30.07,SSE,153,9.0,14.0,51,0.00,,,0.00,VWS V14.01,2013-08-06 17:31:00,
2013-08-06 13:33:00,81.1,60.2,30.07,SE,142,8.0,14.0,49,0.00,,,0.00,VWS V14.01,2013-08-06 17:33:00,
2013-08-06 13:34:00,81.1,60.7,30.07,SSE,154,6.0,14.0,50,0.00,,,0.00,VWS V14.01,2013-08-06 17:34:00,
2013-08-06 13:38:00,80.7,60.3,30.07,SSE,160,6.0,13.0,50,0.00,,,0.00,VWS V14.01,2013-08-06 17:38:00,
2013-08-06 13:39:00,80.7,61.5,30.07,SSE,148,8.0,13.0,52,0.00,,,0.00,VWS V14.01,2013-08-06 17:39:00,
2013-08-06 13:42:00,80.9,62.2,30.07,SE,145,5.0,13.0,53,0.00,,,0.00,VWS V14.01,2013-08-06 17:42:00,
2013-08-06 13:43:00,80.9,62.7,30.07,SSE,148,7.0,13.0,54,0.00,,,0.00,VWS V14.01,2013-08-06 17:43:00,
2013-08-06 13:46:00,81.2,61.9,30.07,SSE,153,5.0,13.0,52,0.00,,,0.00,VWS V14.01,2013-08-06 17:46:00,
2013-08-06 13:48:00,81.6,61.7,30.07,SSE,148,5.0,13.0,51,0.00,,,0.00,VWS V14.01,2013-08-06 17:48:00,
2013-08-06 13:50:00,81.8,60.2,30.07,SE,144,8.0,13.0,48,0.00,,,0.00,VWS V14.01,2013-08-06 17:50:00,
2013-08-06 13:52:00,81.8,59.6,30.07,SSE,157,6.0,13.0,47,0.00,,,0.00,VWS V14.01,2013-08-06 17:52:00,
2013-08-06 13:53:00,81.6,58.8,30.07,SSE,165,7.0,13.0,46,0.00,,,0.00,VWS V14.01,2013-08-06 17:53:00,
2013-08-06 13:55:00,81.8,60.8,30.07,SE,143,7.0,13.0,49,0.00,,,0.00,VWS V14.01,2013-08-06 17:55:00,
2013-08-06 13:57:00,82.2,61.7,30.07,SE,146,5.0,13.0,50,0.00,,,0.00,VWS V14.01,2013-08-06 17:57:00,
2013-08-06 13:58:00,82.2,61.2,30.07,SE,126,4.0,13.0,49,0.00,,,0.00,VWS V14.01,2013-08-06 17:58:00,
2013-08-06 14:00:00,82.2,60.0,30.07,SSE,149,7.0,13.0,47,0.00,,,0.00,VWS V14.01,2013-08-06 18:00:00,
2013-08-06 14:01:00,82.4,60.2,30.07,SSE,153,9.0,13.0,47,0.00,,,0.00,VWS V14.01,2013-08-06 18:01:00,
2013-08-06 14:03:00,82.8,62.3,30.07,SE,141,7.0,13.0,50,0.00,,,0.00,VWS V14.01,2013-08-06 18:03:00,
2013-08-06 14:06:00,82.8,59.9,30.07,SE,140,9.0,13.0,46,0.00,,,0.00,VWS V14.01,2013-08-06 18:06:00,
2013-08-06 14:07:00,82.6,59.1,30.07,SSE,154,10.0,13.0,45,0.00,,,0.00,VWS V14.01,2013-08-06 18:07:00,
2013-08-06 14:08:00,82.4,58.3,30.07,SSE,149,7.0,13.0,44,0.00,,,0.00,VWS V14.01,2013-08-06 18:08:00,
2013-08-06 14:10:00,81.8,59.0,30.07,SE,142,12.0,13.0,46,0.00,,,0.00,VWS V14.01,2013-08-06 18:10:00,
2013-08-06 14:12:00,81.4,59.3,30.07,SSE,153,9.0,13.0,47,0.00,,,0.00,VWS V14.01,2013-08-06 18:12:00,
2013-08-06 14:13:00,81.4,61.0,30.07,SSE,159,5.0,14.0,50,0.00,,,0.00,VWS V14.01,2013-08-06 18:13:00,
2013-08-06 14:16:00,81.6,62.3,30.07,SE,132,8.0,14.0,52,0.00,,,0.00,VWS V14.01,2013-08-06 18:16:00,
2013-08-06 14:17:00,81.6,61.2,30.07,SSE,151,6.0,14.0,50,0.00,,,0.00,VWS V14.01,2013-08-06 18:17:00,
2013-08-06 14:19:00,81.8,60.8,30.07,SSE,148,9.0,14.0,49,0.00,,,0.00,VWS V14.01,2013-08-06 18:19:00,
2013-08-06 14:21:00,82.0,62.1,30.07,SE,142,5.0,14.0,51,0.00,,,0.00,VWS V14.01,2013-08-06 18:21:00,
2013-08-06 14:24:00,82.2,60.6,30.07,SSE,150,7.0,14.0,48,0.00,,,0.00,VWS V14.01,2013-08-06 18:24:00,
2013-08-06 14:26:00,82.0,60.4,30.07,SE,134,9.0,14.0,48,0.00,,,0.00,VWS V14.01,2013-08-06 18:26:00,
2013-08-06 14:27:00,81.8,60.8,30.07,SE,132,4.0,14.0,49,0.00,,,0.00,VWS V14.01,2013-08-06 18:27:00,
2013-08-06 14:30:00,81.4,59.8,30.07,SE,143,11.0,14.0,48,0.00,,,0.00,VWS V14.01,2013-08-06 18:30:00,
2013-08-06 14:32:00,81.1,59.6,30.07,SSE,158,9.0,14.0,48,0.00,,,0.00,VWS V14.01,2013-08-06 18:32:00,
2013-08-06 14:33:00,80.9,60.5,30.07,South,171,6.0,14.0,50,0.00,,,0.00,VWS V14.01,2013-08-06 18:33:00,
2013-08-06 14:34:00,80.7,60.9,30.07,SE,136,9.0,14.0,51,0.00,,,0.00,VWS V14.01,2013-08-06 18:34:00,
2013-08-06 14:36:00,80.7,61.5,30.07,SE,142,11.0,11.0,52,0.00,,,0.00,VWS V14.01,2013-08-06 18:36:00,
2013-08-06 14:38:00,81.1,61.8,30.07,SE,142,6.0,12.0,52,0.00,,,0.00,VWS V14.01,2013-08-06 18:38:00,
2013-08-06 14:39:00,81.1,61.8,30.07,South,187,8.0,12.0,52,0.00,,,0.00,VWS V14.01,2013-08-06 18:39:00,
2013-08-06 14:40:00,81.1,61.3,30.07,South,174,8.0,12.0,51,0.00,,,0.00,VWS V14.01,2013-08-06 18:40:00,
2013-08-06 14:41:00,81.1,60.7,30.07,SSE,162,6.0,12.0,50,0.00,,,0.00,VWS V14.01,2013-08-06 18:41:00,
2013-08-06 14:43:00,81.1,61.8,30.07,SSE,147,9.0,14.0,52,0.00,,,0.00,VWS V14.01,2013-08-06 18:43:00,
2013-08-06 14:46:00,80.9,61.6,30.07,SE,144,7.0,15.0,52,0.00,,,0.00,VWS V14.01,2013-08-06 18:46:00,
2013-08-06 14:48:00,80.7,60.9,30.07,SSE,148,8.0,15.0,51,0.00,,,0.00,VWS V14.01,2013-08-06 18:48:00,
2013-08-06 14:49:00,80.5,60.7,30.06,SSE,167,8.0,15.0,51,0.00,,,0.00,VWS V14.01,2013-08-06 18:49:00,
2013-08-06 14:50:00,80.5,60.7,30.06,South,184,6.0,15.0,51,0.00,,,0.00,VWS V14.01,2013-08-06 18:50:00,
2013-08-06 14:54:00,80.9,61.1,30.06,SE,138,5.0,15.0,51,0.00,,,0.00,VWS V14.01,2013-08-06 18:54:00,
2013-08-06 14:55:00,80.9,61.1,30.06,SE,140,8.0,15.0,51,0.00,,,0.00,VWS V14.01,2013-08-06 18:55:00,
2013-08-06 14:57:00,81.1,61.3,30.06,SSE,152,8.0,15.0,51,0.00,,,0.00,VWS V14.01,2013-08-06 18:57:00,
2013-08-06 14:58:00,81.1,61.8,30.06,SSE,168,7.0,15.0,52,0.00,,,0.00,VWS V14.01,2013-08-06 18:58:00,
2013-08-06 14:59:00,80.9,61.1,30.06,SE,146,13.0,15.0,51,0.00,,,0.00,VWS V14.01,2013-08-06 18:59:00,
2013-08-06 15:03:00,80.5,61.8,30.06,SE,132,8.0,15.0,53,0.00,,,0.00,VWS V14.01,2013-08-06 19:03:00,
2013-08-06 15:04:00,80.5,61.8,30.07,South,170,6.0,15.0,53,0.00,,,0.00,VWS V14.01,2013-08-06 19:04:00,
2013-08-06 15:05:00,80.5,61.8,30.07,SSE,159,7.0,15.0,53,0.00,,,0.00,VWS V14.01,2013-08-06 19:05:00,
2013-08-06 15:08:00,80.1,61.4,30.07,SSE,163,7.0,12.0,53,0.00,,,0.00,VWS V14.01,2013-08-06 19:08:00,
2013-08-06 15:11:00,80.1,62.0,30.07,SE,137,6.0,12.0,54,0.00,,,0.00,VWS V14.01,2013-08-06 19:11:00,
2013-08-06 15:12:00,80.1,61.4,30.07,South,171,11.0,13.0,53,0.00,,,0.00,VWS V14.01,2013-08-06 19:12:00,
2013-08-06 15:13:00,80.1,60.4,30.07,South,169,7.0,13.0,51,0.00,,,0.00,VWS V14.01,2013-08-06 19:13:00,
2013-08-06 15:15:00,80.1,61.4,30.07,SSE,156,9.0,13.0,53,0.00,,,0.00,VWS V14.01,2013-08-06 19:15:00,
2013-08-06 15:19:00,79.8,60.6,30.07,SSE,166,6.0,14.0,52,0.00,,,0.00,VWS V14.01,2013-08-06 19:19:00,
2013-08-06 15:20:00,79.8,60.6,30.07,SE,142,6.0,14.0,52,0.00,,,0.00,VWS V14.01,2013-08-06 19:20:00,
2013-08-06 15:23:00,79.6,61.0,30.07,SSE,157,6.0,14.0,53,0.00,,,0.00,VWS V14.01,2013-08-06 19:23:00,
2013-08-06 15:24:00,79.6,61.5,30.07,SSE,159,8.0,14.0,54,0.00,,,0.00,VWS V14.01,2013-08-06 19:24:00,
2013-08-06 15:25:00,79.6,61.0,30.07,SSE,167,7.0,14.0,53,0.00,,,0.00,VWS V14.01,2013-08-06 19:25:00,
2013-08-06 15:30:00,79.0,59.9,30.07,SSE,163,5.0,14.0,52,0.00,,,0.00,VWS V14.01,2013-08-06 19:30:00,
2013-08-06 15:31:00,78.8,59.2,30.07,SSE,150,9.0,14.0,51,0.00,,,0.00,VWS V14.01,2013-08-06 19:31:00,
2013-08-06 15:32:00,78.8,58.6,30.07,SSE,148,10.0,14.0,50,0.00,,,0.00,VWS V14.01,2013-08-06 19:32:00,
2013-08-06 15:34:00,78.6,61.1,30.06,SSE,167,7.0,14.0,55,0.00,,,0.00,VWS V14.01,2013-08-06 19:34:00,
2013-08-06 15:37:00,78.5,60.5,30.06,SSE,157,8.0,10.0,54,0.00,,,0.00,VWS V14.01,2013-08-06 19:37:00,
2013-08-06 15:38:00,78.5,60.5,30.06,South,186,4.0,11.0,54,0.00,,,0.00,VWS V14.01,2013-08-06 19:38:00,
2013-08-06 15:39:00,78.5,60.5,30.06,South,177,7.0,11.0,54,0.00,,,0.00,VWS V14.01,2013-08-06 19:39:00,
2013-08-06 15:43:00,78.8,60.2,30.06,South,169,8.0,12.0,53,0.00,,,0.00,VWS V14.01,2013-08-06 19:43:00,
2013-08-06 15:44:00,79.0,60.4,30.06,SSE,158,5.0,12.0,53,0.00,,,0.00,VWS V14.01,2013-08-06 19:44:00,
2013-08-06 15:45:00,79.0,59.9,30.06,SSE,162,9.0,12.0,52,0.00,,,0.00,VWS V14.01,2013-08-06 19:45:00,
2013-08-06 15:47:00,79.2,58.4,30.06,SSE,165,7.0,12.0,49,0.00,,,0.00,VWS V14.01,2013-08-06 19:47:00,
2013-08-06 15:48:00,79.2,59.5,30.06,SE,146,7.0,12.0,51,0.00,,,0.00,VWS V14.01,2013-08-06 19:48:00,
2013-08-06 15:49:00,79.4,60.3,30.06,South,182,10.0,12.0,52,0.00,,,0.00,VWS V14.01,2013-08-06 19:49:00,
2013-08-06 15:52:00,79.8,60.6,30.06,South,188,8.0,12.0,52,0.00,,,0.00,VWS V14.01,2013-08-06 19:52:00,
2013-08-06 15:53:00,79.8,61.2,30.06,SE,141,7.0,12.0,53,0.00,,,0.00,VWS V14.01,2013-08-06 19:53:00,
2013-08-06 15:54:00,79.9,61.8,30.06,SSE,147,10.0,12.0,54,0.00,,,0.00,VWS V14.01,2013-08-06 19:54:00,
2013-08-06 15:56:00,80.1,61.4,30.06,SSE,159,8.0,13.0,53,0.00,,,0.00,VWS V14.01,2013-08-06 19:56:00,
2013-08-06 15:58:00,80.1,60.4,30.06,SE,134,8.0,13.0,51,0.00,,,0.00,VWS V14.01,2013-08-06 19:58:00,
2013-08-06 15:59:00,80.1,60.4,30.06,SSE,162,9.0,14.0,51,0.00,,,0.00,VWS V14.01,2013-08-06 19:59:00,
2013-08-06 16:00:00,80.1,59.8,30.06,SE,146,7.0,14.0,50,0.00,,,0.00,VWS V14.01,2013-08-06 20:00:00,
2013-08-06 16:03:00,80.3,61.6,30.06,SE,134,8.0,14.0,53,0.00,,,0.00,VWS V14.01,2013-08-06 20:03:00,
2013-08-06 16:04:00,80.5,62.3,30.06,South,182,8.0,14.0,54,0.00,,,0.00,VWS V14.01,2013-08-06 20:04:00,
2013-08-06 16:05:00,80.5,61.8,30.06,SSE,161,6.0,14.0,53,0.00,,,0.00,VWS V14.01,2013-08-06 20:05:00,
2013-08-06 16:08:00,80.9,60.0,30.06,SSE,150,12.0,13.0,49,0.00,,,0.00,VWS V14.01,2013-08-06 20:08:00,
2013-08-06 16:09:00,80.9,59.4,30.06,SSE,153,10.0,13.0,48,0.00,,,0.00,VWS V14.01,2013-08-06 20:09:00,
2013-08-06 16:10:00,80.9,59.4,30.06,SSE,167,7.0,13.0,48,0.00,,,0.00,VWS V14.01,2013-08-06 20:10:00,
2013-08-06 16:11:00,80.9,59.4,30.06,SSE,165,5.0,13.0,48,0.00,,,0.00,VWS V14.01,2013-08-06 20:11:00,
2013-08-06 16:14:00,80.9,60.0,30.06,SSE,160,8.0,13.0,49,0.00,,,0.00,VWS V14.01,2013-08-06 20:14:00,
2013-08-06 16:15:00,81.1,60.2,30.06,South,189,5.0,13.0,49,0.00,,,0.00,VWS V14.01,2013-08-06 20:15:00,
2013-08-06 16:16:00,81.1,59.6,30.06,South,183,5.0,13.0,48,0.00,,,0.00,VWS V14.01,2013-08-06 20:16:00,
2013-08-06 16:17:00,81.1,59.6,30.06,South,171,8.0,13.0,48,0.00,,,0.00,VWS V14.01,2013-08-06 20:17:00,
2013-08-06 16:19:00,81.1,59.6,30.06,SE,142,7.0,13.0,48,0.00,,,0.00,VWS V14.01,2013-08-06 20:19:00,
2013-08-06 16:20:00,81.1,60.2,30.06,South,172,10.0,13.0,49,0.00,,,0.00,VWS V14.01,2013-08-06 20:20:00,
2013-08-06 16:24:00,81.1,60.7,30.06,South,182,8.0,13.0,50,0.00,,,0.00,VWS V14.01,2013-08-06 20:24:00,
2013-08-06 16:26:00,81.1,60.7,30.06,ESE,121,4.0,13.0,50,0.00,,,0.00,VWS V14.01,2013-08-06 20:26:00,
2013-08-06 16:29:00,81.1,60.2,30.06,SSE,159,9.0,13.0,49,0.00,,,0.00,VWS V14.01,2013-08-06 20:29:00,
2013-08-06 16:30:00,81.2,60.8,30.06,SSE,147,12.0,13.0,50,0.00,,,0.00,VWS V14.01,2013-08-06 20:30:00,
2013-08-06 16:31:00,81.1,60.2,30.06,SE,140,6.0,13.0,49,0.00,,,0.00,VWS V14.01,2013-08-06 20:31:00,
2013-08-06 16:35:00,80.7,60.3,30.06,South,180,9.0,13.0,50,0.00,,,0.00,VWS V14.01,2013-08-06 20:35:00,
2013-08-06 16:36:00,80.7,59.2,30.06,South,171,10.0,10.0,48,0.00,,,0.00,VWS V14.01,2013-08-06 20:36:00,
2013-08-06 16:37:00,80.5,59.6,30.06,SE,143,10.0,12.0,49,0.00,,,0.00,VWS V14.01,2013-08-06 20:37:00,
2013-08-06 16:40:00,80.1,58.7,30.06,SSE,159,9.0,13.0,48,0.00,,,0.00,VWS V14.01,2013-08-06 20:40:00,
2013-08-06 16:41:00,79.9,59.0,30.06,SSE,161,6.0,13.0,49,0.00,,,0.00,VWS V14.01,2013-08-06 20:41:00,
2013-08-06 16:42:00,79.9,60.2,30.06,South,172,10.0,13.0,51,0.00,,,0.00,VWS V14.01,2013-08-06 20:42:00,
2013-08-06 16:46:00,79.8,59.5,30.06,SSE,164,6.0,15.0,50,0.00,,,0.00,VWS V14.01,2013-08-06 20:46:00,
2013-08-06 16:47:00,79.6,59.3,30.06,SSE,154,10.0,15.0,50,0.00,,,0.00,VWS V14.01,2013-08-06 20:47:00,
2013-08-06 16:48:00,79.6,59.3,30.06,SSE,151,2.0,15.0,50,0.00,,,0.00,VWS V14.01,2013-08-06 20:48:00,
2013-08-06 16:52:00,79.4,59.7,30.07,South,175,7.0,15.0,51,0.00,,,0.00,VWS V14.01,2013-08-06 20:52:00,
2013-08-06 16:53:00,79.2,59.0,30.07,South,173,5.0,15.0,50,0.00,,,0.00,VWS V14.01,2013-08-06 20:53:00,
2013-08-06 16:54:00,79.2,59.0,30.07,South,178,5.0,15.0,50,0.00,,,0.00,VWS V14.01,2013-08-06 20:54:00,
2013-08-06 16:57:00,79.2,60.1,30.07,SSE,166,5.0,15.0,52,0.00,,,0.00,VWS V14.01,2013-08-06 20:57:00,
2013-08-06 16:58:00,79.2,60.1,30.07,SSE,159,5.0,15.0,52,0.00,,,0.00,VWS V14.01,2013-08-06 20:58:00,
2013-08-06 16:59:00,79.4,59.7,30.07,South,174,8.0,15.0,51,0.00,,,0.00,VWS V14.01,2013-08-06 20:59:00,
2013-08-06 17:01:00,79.6,60.4,30.07,SSE,168,6.0,15.0,52,0.00,,,0.00,VWS V14.01,2013-08-06 21:01:00,
2013-08-06 17:02:00,79.6,59.9,30.07,SE,143,5.0,15.0,51,0.00,,,0.00,VWS V14.01,2013-08-06 21:02:00,
2013-08-06 17:03:00,79.6,60.4,30.07,SSE,161,6.0,15.0,52,0.00,,,0.00,VWS V14.01,2013-08-06 21:03:00,
2013-08-06 17:05:00,79.4,60.8,30.06,South,171,9.0,15.0,53,0.00,,,0.00,VWS V14.01,2013-08-06 21:05:00,
2013-08-06 17:09:00,78.8,61.8,30.06,SSW,194,5.0,11.0,56,0.00,,,0.00,VWS V14.01,2013-08-06 21:09:00,
2013-08-06 17:10:00,78.6,61.1,30.06,South,180,8.0,11.0,55,0.00,,,0.00,VWS V14.01,2013-08-06 21:10:00,
2013-08-06 17:14:00,78.1,60.1,30.06,SSE,166,8.0,11.0,54,0.00,,,0.00,VWS V14.01,2013-08-06 21:14:00,
2013-08-06 17:15:00,77.9,59.9,30.06,SSE,151,7.0,12.0,54,0.00,,,0.00,VWS V14.01,2013-08-06 21:15:00,
2013-08-06 17:17:00,77.6,60.2,30.06,South,186,5.0,12.0,55,0.00,,,0.00,VWS V14.01,2013-08-06 21:17:00,
2013-08-06 17:20:00,77.4,60.5,30.07,South,170,8.0,12.0,56,0.00,,,0.00,VWS V14.01,2013-08-06 21:20:00,
2013-08-06 17:22:00,77.2,59.8,30.07,SSE,162,6.0,12.0,55,0.00,,,0.00,VWS V14.01,2013-08-06 21:22:00,
2013-08-06 17:23:00,77.2,59.8,30.07,SE,134,8.0,12.0,55,0.00,,,0.00,VWS V14.01,2013-08-06 21:23:00,
2013-08-06 17:25:00,77.0,59.6,30.07,South,190,4.0,12.0,55,0.00,,,0.00,VWS V14.01,2013-08-06 21:25:00,
2013-08-06 17:26:00,76.8,59.4,30.07,SSE,157,5.0,12.0,55,0.00,,,0.00,VWS V14.01,2013-08-06 21:26:00,
2013-08-06 17:27:00,76.8,59.9,30.07,SSE,163,7.0,12.0,56,0.00,,,0.00,VWS V14.01,2013-08-06 21:27:00,
2013-08-06 17:29:00,76.8,60.4,30.07,SE,142,7.0,12.0,57,0.00,,,0.00,VWS V14.01,2013-08-06 21:29:00,
2013-08-06 17:32:00,76.7,60.8,30.07,SSE,161,6.0,12.0,58,0.00,,,0.00,VWS V14.01,2013-08-06 21:32:00,
2013-08-06 17:33:00,76.7,60.8,30.07,SSE,168,1.0,12.0,58,0.00,,,0.00,VWS V14.01,2013-08-06 21:33:00,
2013-08-06 17:34:00,76.7,61.3,30.07,SSE,168,10.0,12.0,59,0.00,,,0.00,VWS V14.01,2013-08-06 21:34:00,
2013-08-06 17:35:00,76.7,60.8,30.07,South,175,6.0,12.0,58,0.00,,,0.00,VWS V14.01,2013-08-06 21:35:00,
2013-08-06 17:37:00,76.5,61.6,30.07,South,177,8.0,11.0,60,0.00,,,0.00,VWS V14.01,2013-08-06 21:37:00,
2013-08-06 17:38:00,76.5,61.1,30.07,South,171,8.0,13.0,59,0.00,,,0.00,VWS V14.01,2013-08-06 21:38:00,
2013-08-06 17:40:00,76.1,60.3,30.07,SSE,161,6.0,13.0,58,0.00,,,0.00,VWS V14.01,2013-08-06 21:40:00,
2013-08-06 17:44:00,76.1,60.8,30.07,SSE,163,4.0,13.0,59,0.00,,,0.00,VWS V14.01,2013-08-06 21:44:00,
2013-08-06 17:45:00,76.1,61.2,30.07,SSE,159,0.0,13.0,60,0.00,,,0.00,VWS V14.01,2013-08-06 21:45:00,
2013-08-06 17:46:00,76.0,61.1,30.07,South,179,8.0,13.0,60,0.00,,,0.00,VWS V14.01,2013-08-06 21:46:00,
2013-08-06 17:47:00,76.0,60.7,30.07,South,171,4.0,13.0,59,0.00,,,0.00,VWS V14.01,2013-08-06 21:47:00,
2013-08-06 17:49:00,76.0,60.2,30.07,South,178,6.0,13.0,58,0.00,,,0.00,VWS V14.01,2013-08-06 21:49:00,
2013-08-06 17:52:00,76.0,60.7,30.06,SSE,158,5.0,13.0,59,0.00,,,0.00,VWS V14.01,2013-08-06 21:52:00,
2013-08-06 17:54:00,76.0,60.7,30.06,SSE,159,9.0,13.0,59,0.00,,,0.00,VWS V14.01,2013-08-06 21:54:00,
2013-08-06 17:56:00,76.0,61.1,30.06,SE,141,7.0,13.0,60,0.00,,,0.00,VWS V14.01,2013-08-06 21:56:00,
2013-08-06 17:58:00,75.8,61.4,30.06,South,190,7.0,13.0,61,0.00,,,0.00,VWS V14.01,2013-08-06 21:58:00,
2013-08-06 18:00:00,75.8,60.5,30.06,SSE,148,0.0,13.0,59,0.00,,,0.00,VWS V14.01,2013-08-06 22:00:00,
2013-08-06 18:01:00,75.8,60.9,30.06,SSE,163,9.0,13.0,60,0.00,,,0.00,VWS V14.01,2013-08-06 22:01:00,
2013-08-06 18:03:00,75.6,60.8,30.06,South,184,6.0,13.0,60,0.00,,,0.00,VWS V14.01,2013-08-06 22:03:00,
2013-08-06 18:05:00,75.4,60.6,30.06,South,169,5.0,13.0,60,0.00,,,0.00,VWS V14.01,2013-08-06 22:05:00,
2013-08-06 18:06:00,75.4,60.6,30.06,SSE,155,2.0,7.0,60,0.00,,,0.00,VWS V14.01,2013-08-06 22:06:00,
2013-08-06 18:09:00,75.3,60.5,30.06,South,190,7.0,9.0,60,0.00,,,0.00,VWS V14.01,2013-08-06 22:09:00,
2013-08-06 18:10:00,75.3,60.5,30.06,SSE,147,9.0,10.0,60,0.00,,,0.00,VWS V14.01,2013-08-06 22:10:00,
2013-08-06 18:14:00,75.3,60.5,30.06,SSE,161,6.0,12.0,60,0.00,,,0.00,VWS V14.01,2013-08-06 22:14:00,
2013-08-06 18:15:00,75.3,60.5,30.06,SSE,167,5.0,12.0,60,0.00,,,0.00,VWS V14.01,2013-08-06 22:15:00,
2013-08-06 18:17:00,75.3,60.0,30.06,SSE,153,0.0,12.0,59,0.00,,,0.00,VWS V14.01,2013-08-06 22:17:00,
2013-08-06 18:18:00,75.3,60.0,30.06,SSE,148,4.0,12.0,59,0.00,,,0.00,VWS V14.01,2013-08-06 22:18:00,
2013-08-06 18:21:00,75.3,60.0,30.06,SSE,154,10.0,12.0,59,0.00,,,0.00,VWS V14.01,2013-08-06 22:21:00,
2013-08-06 18:22:00,75.4,60.1,30.06,SSW,201,3.0,12.0,59,0.00,,,0.00,VWS V14.01,2013-08-06 22:22:00,
2013-08-06 18:24:00,75.4,60.1,30.06,SSE,153,7.0,12.0,59,0.00,,,0.00,VWS V14.01,2013-08-06 22:24:00,
2013-08-06 18:27:00,75.4,60.1,30.06,SSE,151,7.0,12.0,59,0.00,,,0.00,VWS V14.01,2013-08-06 22:27:00,
2013-08-06 18:29:00,75.4,60.1,30.06,SSE,162,4.0,13.0,59,0.00,,,0.00,VWS V14.01,2013-08-06 22:29:00,
2013-08-06 18:30:00,75.3,60.5,30.06,SE,140,5.0,13.0,60,0.00,,,0.00,VWS V14.01,2013-08-06 22:30:00,
2013-08-06 18:33:00,75.3,60.0,30.06,SE,143,5.0,13.0,59,0.00,,,0.00,VWS V14.01,2013-08-06 22:33:00,
2013-08-06 18:34:00,75.1,59.8,30.07,SSE,167,4.0,13.0,59,0.00,,,0.00,VWS V14.01,2013-08-06 22:34:00,
2013-08-06 18:35:00,75.1,59.8,30.07,SSE,157,5.0,13.0,59,0.00,,,0.00,VWS V14.01,2013-08-06 22:35:00,
2013-08-06 18:37:00,75.1,60.3,30.07,SSE,163,1.0,7.0,60,0.00,,,0.00,VWS V14.01,2013-08-06 22:37:00,
2013-08-06 18:40:00,74.9,60.1,30.07,SSE,163,0.0,12.0,60,0.00,,,0.00,VWS V14.01,2013-08-06 22:40:00,
2013-08-06 18:41:00,74.9,60.1,30.07,South,169,7.0,12.0,60,0.00,,,0.00,VWS V14.01,2013-08-06 22:41:00,
2013-08-06 18:43:00,74.9,60.1,30.07,SSE,157,0.0,12.0,60,0.00,,,0.00,VWS V14.01,2013-08-06 22:43:00,
2013-08-06 18:44:00,74.9,60.1,30.07,South,175,0.0,12.0,60,0.00,,,0.00,VWS V14.01,2013-08-06 22:44:00,
2013-08-06 18:46:00,74.9,60.1,30.07,South,189,3.0,12.0,60,0.00,,,0.00,VWS V14.01,2013-08-06 22:46:00,
2013-08-06 18:49:00,74.7,59.9,30.07,South,178,6.0,12.0,60,0.00,,,0.00,VWS V14.01,2013-08-06 22:49:00,
2013-08-06 18:52:00,74.7,60.4,30.07,SSE,162,4.0,12.0,61,0.00,,,0.00,VWS V14.01,2013-08-06 22:52:00,
2013-08-06 18:55:00,74.7,60.4,30.07,South,178,5.0,12.0,61,0.00,,,0.00,VWS V14.01,2013-08-06 22:55:00,
2013-08-06 18:57:00,74.6,59.8,30.07,SE,134,5.0,12.0,60,0.00,,,0.00,VWS V14.01,2013-08-06 22:57:00,
2013-08-06 18:58:00,74.6,59.8,30.07,SSE,167,4.0,12.0,60,0.00,,,0.00,VWS V14.01,2013-08-06 22:58:00,
2013-08-06 18:59:00,74.6,59.8,30.07,SSE,163,5.0,12.0,60,0.00,,,0.00,VWS V14.01,2013-08-06 22:59:00,
2013-08-06 19:01:00,74.6,60.7,30.07,SSE,160,0.0,12.0,62,0.00,,,0.00,VWS V14.01,2013-08-06 23:01:00,
2013-08-06 19:02:00,74.6,60.7,30.07,SSE,164,6.0,12.0,62,0.00,,,0.00,VWS V14.01,2013-08-06 23:02:00,
2013-08-06 19:03:00,74.6,60.7,30.07,SSW,196,6.0,12.0,62,0.00,,,0.00,VWS V14.01,2013-08-06 23:03:00,
2013-08-06 19:05:00,74.4,60.5,30.07,South,182,8.0,11.0,62,0.00,,,0.00,VWS V14.01,2013-08-06 23:05:00,
2013-08-06 19:08:00,74.4,60.5,30.07,SSE,158,6.0,11.0,62,0.00,,,0.00,VWS V14.01,2013-08-06 23:08:00,
2013-08-06 19:10:00,74.4,61.0,30.07,SE,138,8.0,11.0,63,0.00,,,0.00,VWS V14.01,2013-08-06 23:10:00,
2013-08-06 19:11:00,74.4,61.0,30.07,SSW,202,7.0,11.0,63,0.00,,,0.00,VWS V14.01,2013-08-06 23:11:00,
2013-08-06 19:13:00,74.2,60.8,30.07,SSW,198,8.0,11.0,63,0.00,,,0.00,VWS V14.01,2013-08-06 23:13:00,
2013-08-06 19:14:00,74.2,60.4,30.07,SSW,201,4.0,11.0,62,0.00,,,0.00,VWS V14.01,2013-08-06 23:14:00,
2013-08-06 19:16:00,74.2,60.4,30.07,SSW,200,6.0,11.0,62,0.00,,,0.00,VWS V14.01,2013-08-06 23:16:00,
2013-08-06 19:17:00,74.0,60.2,30.07,SSW,197,6.0,11.0,62,0.00,,,0.00,VWS V14.01,2013-08-06 23:17:00,
2013-08-06 19:19:00,74.0,60.6,30.07,SSE,161,5.0,11.0,63,0.00,,,0.00,VWS V14.01,2013-08-06 23:19:00,
2013-08-06 19:20:00,74.0,60.6,30.07,SSE,160,0.0,11.0,63,0.00,,,0.00,VWS V14.01,2013-08-06 23:20:00,
2013-08-06 19:22:00,74.0,61.1,30.07,SSE,148,5.0,11.0,64,0.00,,,0.00,VWS V14.01,2013-08-06 23:22:00,
2013-08-06 19:24:00,74.0,61.1,30.07,South,188,3.0,11.0,64,0.00,,,0.00,VWS V14.01,2013-08-06 23:24:00,
2013-08-06 19:25:00,74.0,61.1,30.07,SSW,205,6.0,11.0,64,0.00,,,0.00,VWS V14.01,2013-08-06 23:25:00,
2013-08-06 19:29:00,74.0,61.1,30.07,SSE,161,0.0,11.0,64,0.00,,,0.00,VWS V14.01,2013-08-06 23:29:00,
2013-08-06 19:30:00,74.0,61.1,30.07,South,169,5.0,11.0,64,0.00,,,0.00,VWS V14.01,2013-08-06 23:30:00,
2013-08-06 19:31:00,74.0,61.5,30.07,SSW,193,6.0,11.0,65,0.00,,,0.00,VWS V14.01,2013-08-06 23:31:00,
2013-08-06 19:33:00,74.0,61.5,30.07,SSE,162,4.0,11.0,65,0.00,,,0.00,VWS V14.01,2013-08-06 23:33:00,
2013-08-06 19:35:00,73.9,61.0,30.07,SSE,150,2.0,11.0,64,0.00,,,0.00,VWS V14.01,2013-08-06 23:35:00,
2013-08-06 19:36:00,73.9,61.4,30.07,SSE,147,6.0,10.0,65,0.00,,,0.00,VWS V14.01,2013-08-06 23:36:00,
2013-08-06 19:38:00,73.7,60.8,30.07,South,170,5.0,10.0,64,0.00,,,0.00,VWS V14.01,2013-08-06 23:38:00,
2013-08-06 19:40:00,73.7,60.8,30.07,South,175,2.0,10.0,64,0.00,,,0.00,VWS V14.01,2013-08-06 23:40:00,
2013-08-06 19:41:00,73.7,60.8,30.07,SSE,155,5.0,10.0,64,0.00,,,0.00,VWS V14.01,2013-08-06 23:41:00,
2013-08-06 19:42:00,73.7,60.8,30.07,SSE,156,5.0,10.0,64,0.00,,,0.00,VWS V14.01,2013-08-06 23:42:00,
2013-08-06 19:45:00,73.5,60.6,30.07,SSE,161,5.0,12.0,64,0.00,,,0.00,VWS V14.01,2013-08-06 23:45:00,
2013-08-06 19:46:00,73.5,60.6,30.07,SE,146,5.0,12.0,64,0.00,,,0.00,VWS V14.01,2013-08-06 23:46:00,
2013-08-06 19:47:00,73.5,60.6,30.07,SE,141,5.0,12.0,64,0.00,,,0.00,VWS V14.01,2013-08-06 23:47:00,
2013-08-06 19:48:00,73.5,60.6,30.07,SSE,154,7.0,12.0,64,0.00,,,0.00,VWS V14.01,2013-08-06 23:48:00,
2013-08-06 19:50:00,73.3,60.4,30.07,SSE,154,9.0,12.0,64,0.00,,,0.00,VWS V14.01,2013-08-06 23:50:00,
2013-08-06 19:52:00,73.3,60.4,30.07,SSE,147,5.0,12.0,64,0.00,,,0.00,VWS V14.01,2013-08-06 23:52:00,
2013-08-06 19:53:00,73.2,60.3,30.07,SE,146,9.0,12.0,64,0.00,,,0.00,VWS V14.01,2013-08-06 23:53:00,
2013-08-06 19:55:00,73.2,60.3,30.07,SSE,166,5.0,12.0,64,0.00,,,0.00,VWS V14.01,2013-08-06 23:55:00,
2013-08-06 19:56:00,73.2,60.3,30.07,SSE,163,7.0,12.0,64,0.00,,,0.00,VWS V14.01,2013-08-06 23:56:00,
2013-08-06 20:00:00,73.0,60.1,30.07,SSE,153,7.0,12.0,64,0.00,,,0.00,VWS V14.01,2013-08-07 00:00:00,
2013-08-06 20:01:00,73.0,60.5,30.07,SSW,196,7.0,12.0,65,0.00,,,0.00,VWS V14.01,2013-08-07 00:01:00,
2013-08-06 20:03:00,73.0,60.5,30.07,South,177,8.0,12.0,65,0.00,,,0.00,VWS V14.01,2013-08-07 00:03:00,
2013-08-06 20:05:00,73.0,60.5,30.07,SSE,165,4.0,12.0,65,0.00,,,0.00,VWS V14.01,2013-08-07 00:05:00,
2013-08-06 20:08:00,72.8,60.4,30.07,SSE,160,5.0,9.0,65,0.00,,,0.00,VWS V14.01,2013-08-07 00:08:00,
2013-08-06 20:09:00,72.8,60.4,30.07,SSE,147,2.0,9.0,65,0.00,,,0.00,VWS V14.01,2013-08-07 00:09:00,
2013-08-06 20:11:00,72.8,60.4,30.07,SSE,164,5.0,10.0,65,0.00,,,0.00,VWS V14.01,2013-08-07 00:11:00,
2013-08-06 20:14:00,72.8,60.8,30.07,SSE,161,7.0,11.0,66,0.00,,,0.00,VWS V14.01,2013-08-07 00:14:00,
2013-08-06 20:16:00,72.8,60.8,30.07,SSE,165,4.0,11.0,66,0.00,,,0.00,VWS V14.01,2013-08-07 00:16:00,
2013-08-06 20:17:00,72.8,61.2,30.07,SSE,159,8.0,11.0,67,0.00,,,0.00,VWS V14.01,2013-08-07 00:17:00,
2013-08-06 20:18:00,72.8,61.2,30.07,SE,144,6.0,11.0,67,0.00,,,0.00,VWS V14.01,2013-08-07 00:18:00,
2013-08-06 20:19:00,72.8,61.2,30.07,South,180,4.0,11.0,67,0.00,,,0.00,VWS V14.01,2013-08-07 00:19:00,
2013-08-06 20:20:00,72.8,61.2,30.07,South,171,6.0,11.0,67,0.00,,,0.00,VWS V14.01,2013-08-07 00:20:00,
2013-08-06 20:21:00,72.8,61.2,30.07,South,185,6.0,11.0,67,0.00,,,0.00,VWS V14.01,2013-08-07 00:21:00,
2013-08-06 20:24:00,72.8,60.8,30.07,South,175,6.0,11.0,66,0.00,,,0.00,VWS V14.01,2013-08-07 00:24:00,
2013-08-06 20:25:00,72.8,60.8,30.07,South,172,7.0,11.0,66,0.00,,,0.00,VWS V14.01,2013-08-07 00:25:00,
2013-08-06 20:26:00,72.8,60.8,30.07,South,173,8.0,11.0,66,0.00,,,0.00,VWS V14.01,2013-08-07 00:26:00,
2013-08-06 20:30:00,72.8,60.8,30.07,South,171,8.0,11.0,66,0.00,,,0.00,VWS V14.01,2013-08-07 00:30:00,
2013-08-06 20:31:00,72.8,60.8,30.07,SE,139,4.0,11.0,66,0.00,,,0.00,VWS V14.01,2013-08-07 00:31:00,
2013-08-06 20:32:00,72.8,60.8,30.07,SSE,158,7.0,11.0,66,0.00,,,0.00,VWS V14.01,2013-08-07 00:32:00,
2013-08-06 20:33:00,72.8,60.8,30.07,South,169,5.0,11.0,66,0.00,,,0.00,VWS V14.01,2013-08-07 00:33:00,
2013-08-06 20:36:00,72.7,60.7,30.07,South,171,5.0,5.0,66,0.00,,,0.00,VWS V14.01,2013-08-07 00:36:00,
2013-08-06 20:37:00,72.7,60.7,30.07,SSE,151,4.0,8.0,66,0.00,,,0.00,VWS V14.01,2013-08-07 00:37:00,
2013-08-06 20:38:00,72.7,60.7,30.07,SSE,147,0.0,8.0,66,0.00,,,0.00,VWS V14.01,2013-08-07 00:38:00,
2013-08-06 20:40:00,72.7,61.1,30.07,SSE,159,8.0,9.0,67,0.00,,,0.00,VWS V14.01,2013-08-07 00:40:00,
2013-08-06 20:41:00,72.7,61.1,30.07,SSE,148,8.0,10.0,67,0.00,,,0.00,VWS V14.01,2013-08-07 00:41:00,
2013-08-06 20:42:00,72.7,60.7,30.07,South,172,7.0,11.0,66,0.00,,,0.00,VWS V14.01,2013-08-07 00:42:00,
2013-08-06 20:45:00,72.7,61.1,30.07,SSE,147,6.0,12.0,67,0.00,,,0.00,VWS V14.01,2013-08-07 00:45:00,
2013-08-06 20:46:00,72.7,61.1,30.07,SSE,167,4.0,12.0,67,0.00,,,0.00,VWS V14.01,2013-08-07 00:46:00,
2013-08-06 20:48:00,72.7,61.1,30.07,SSE,147,5.0,12.0,67,0.00,,,0.00,VWS V14.01,2013-08-07 00:48:00,
2013-08-06 20:50:00,72.7,61.1,30.07,SSE,152,4.0,12.0,67,0.00,,,0.00,VWS V14.01,2013-08-07 00:50:00,
2013-08-06 20:54:00,72.7,61.5,30.07,SSE,147,6.0,12.0,68,0.00,,,0.00,VWS V14.01,2013-08-07 00:54:00,
2013-08-06 20:55:00,72.7,62.0,30.07,SE,142,8.0,12.0,69,0.00,,,0.00,VWS V14.01,2013-08-07 00:55:00,
2013-08-06 20:56:00,72.7,62.0,30.07,SSE,153,8.0,12.0,69,0.00,,,0.00,VWS V14.01,2013-08-07 00:56:00,
2013-08-06 20:58:00,72.8,62.0,30.07,SSE,166,6.0,12.0,69,0.00,,,0.00,VWS V14.01,2013-08-07 00:58:00,
2013-08-06 20:59:00,72.8,62.0,30.07,SSE,167,7.0,12.0,69,0.00,,,0.00,VWS V14.01,2013-08-07 00:59:00,
2013-08-06 21:00:00,72.8,62.0,30.07,SSE,160,0.0,12.0,69,0.00,,,0.00,VWS V14.01,2013-08-07 01:00:00,
2013-08-06 21:01:00,72.7,61.5,30.07,South,172,2.0,12.0,68,0.00,,,0.00,VWS V14.01,2013-08-07 01:01:00,
2013-08-06 21:04:00,72.7,61.5,30.07,SSE,157,7.0,12.0,68,0.00,,,0.00,VWS V14.01,2013-08-07 01:04:00,
2013-08-06 21:05:00,72.7,61.5,30.07,South,170,4.0,12.0,68,0.00,,,0.00,VWS V14.01,2013-08-07 01:05:00,
2013-08-06 21:06:00,72.7,62.0,30.07,SE,143,4.0,7.0,69,0.00,,,0.00,VWS V14.01,2013-08-07 01:06:00,
2013-08-06 21:07:00,72.7,62.0,30.07,South,172,4.0,7.0,69,0.00,,,0.00,VWS V14.01,2013-08-07 01:07:00,
2013-08-06 21:08:00,72.7,62.0,30.07,South,176,7.0,8.0,69,0.00,,,0.00,VWS V14.01,2013-08-07 01:08:00,
2013-08-06 21:12:00,72.7,62.0,30.07,South,173,0.0,10.0,69,0.00,,,0.00,VWS V14.01,2013-08-07 01:12:00,
2013-08-06 21:13:00,72.7,62.0,30.07,South,171,7.0,10.0,69,0.00,,,0.00,VWS V14.01,2013-08-07 01:13:00,
2013-08-06 21:16:00,72.7,62.0,30.07,South,173,0.0,10.0,69,0.00,,,0.00,VWS V14.01,2013-08-07 01:16:00,
2013-08-06 21:17:00,72.7,62.0,30.07,South,174,0.0,10.0,69,0.00,,,0.00,VWS V14.01,2013-08-07 01:17:00,
2013-08-06 21:19:00,72.5,61.8,30.07,South,182,0.0,10.0,69,0.00,,,0.00,VWS V14.01,2013-08-07 01:19:00,
2013-08-06 21:22:00,72.5,61.8,30.07,SSE,165,0.0,10.0,69,0.00,,,0.00,VWS V14.01,2013-08-07 01:22:00,
2013-08-06 21:23:00,72.5,61.8,30.07,SSE,165,2.0,10.0,69,0.00,,,0.00,VWS V14.01,2013-08-07 01:23:00,
2013-08-06 21:24:00,72.5,62.2,30.07,SE,144,5.0,10.0,70,0.00,,,0.00,VWS V14.01,2013-08-07 01:24:00,
2013-08-06 21:26:00,72.3,62.0,30.07,SE,144,5.0,10.0,70,0.00,,,0.00,VWS V14.01,2013-08-07 01:26:00,
2013-08-06 21:30:00,72.3,62.4,30.07,SE,146,0.0,10.0,71,0.00,,,0.00,VWS V14.01,2013-08-07 01:30:00,
2013-08-06 21:33:00,72.3,62.4,30.07,SSE,149,1.0,10.0,71,0.00,,,0.00,VWS V14.01,2013-08-07 01:33:00,
2013-08-06 21:34:00,72.3,62.4,30.07,SSE,148,1.0,10.0,71,0.00,,,0.00,VWS V14.01,2013-08-07 01:34:00,
2013-08-06 21:35:00,72.3,62.4,30.08,SE,138,0.0,10.0,71,0.00,,,0.00,VWS V14.01,2013-08-07 01:35:00,
2013-08-06 21:39:00,72.3,62.4,30.08,SSE,160,0.0,5.0,71,0.00,,,0.00,VWS V14.01,2013-08-07 01:39:00,
2013-08-06 21:40:00,72.3,62.4,30.08,SSE,160,0.0,5.0,71,0.00,,,0.00,VWS V14.01,2013-08-07 01:40:00,
2013-08-06 21:42:00,72.3,62.8,30.08,SSE,155,0.0,6.0,72,0.00,,,0.00,VWS V14.01,2013-08-07 01:42:00,
2013-08-06 21:45:00,72.1,62.6,30.08,SSE,155,2.0,6.0,72,0.00,,,0.00,VWS V14.01,2013-08-07 01:45:00,
2013-08-06 21:46:00,72.1,62.6,30.08,SSE,168,4.0,8.0,72,0.00,,,0.00,VWS V14.01,2013-08-07 01:46:00,
2013-08-06 21:48:00,72.1,62.6,30.08,SSE,165,0.0,8.0,72,0.00,,,0.00,VWS V14.01,2013-08-07 01:48:00,
2013-08-06 21:51:00,72.1,62.6,30.08,SSE,154,2.0,8.0,72,0.00,,,0.00,VWS V14.01,2013-08-07 01:51:00,
2013-08-06 21:52:00,72.1,62.6,30.08,SE,144,0.0,8.0,72,0.00,,,0.00,VWS V14.01,2013-08-07 01:52:00,
2013-08-06 21:54:00,72.1,62.6,30.08,SSE,151,0.0,8.0,72,0.00,,,0.00,VWS V14.01,2013-08-07 01:54:00,
2013-08-06 21:56:00,72.1,62.6,30.08,SSE,150,4.0,8.0,72,0.00,,,0.00,VWS V14.01,2013-08-07 01:56:00,
2013-08-06 21:57:00,72.1,62.6,30.08,SSE,150,0.0,8.0,72,0.00,,,0.00,VWS V14.01,2013-08-07 01:57:00,
2013-08-06 21:58:00,72.1,62.6,30.08,SSE,156,4.0,8.0,72,0.00,,,0.00,VWS V14.01,2013-08-07 01:58:00,
2013-08-06 22:00:00,72.0,62.5,30.08,SSE,157,4.0,8.0,72,0.00,,,0.00,VWS V14.01,2013-08-07 02:00:00,
2013-08-06 22:03:00,72.0,62.5,30.08,South,175,2.0,8.0,72,0.00,,,0.00,VWS V14.01,2013-08-07 02:03:00,
2013-08-06 22:05:00,72.0,62.5,30.08,SSE,155,0.0,8.0,72,0.00,,,0.00,VWS V14.01,2013-08-07 02:05:00,
2013-08-06 22:06:00,71.8,62.3,30.08,SSE,161,2.0,5.0,72,0.00,,,0.00,VWS V14.01,2013-08-07 02:06:00,
2013-08-06 22:10:00,71.8,62.3,30.08,South,178,4.0,8.0,72,0.00,,,0.00,VWS V14.01,2013-08-07 02:10:00,
2013-08-06 22:11:00,71.8,62.3,30.08,South,178,0.0,8.0,72,0.00,,,0.00,VWS V14.01,2013-08-07 02:11:00,
2013-08-06 22:12:00,71.8,62.3,30.08,South,178,0.0,8.0,72,0.00,,,0.00,VWS V14.01,2013-08-07 02:12:00,
2013-08-06 22:13:00,71.8,62.3,30.08,SSE,168,4.0,8.0,72,0.00,,,0.00,VWS V14.01,2013-08-07 02:13:00,
2013-08-06 22:14:00,71.8,62.3,30.08,SSE,167,4.0,8.0,72,0.00,,,0.00,VWS V14.01,2013-08-07 02:14:00,
2013-08-06 22:15:00,71.8,62.3,30.08,SSE,167,4.0,8.0,72,0.00,,,0.00,VWS V14.01,2013-08-07 02:15:00,
2013-08-06 22:20:00,71.8,62.3,30.08,SSE,161,0.0,8.0,72,0.00,,,0.00,VWS V14.01,2013-08-07 02:20:00,
2013-08-06 22:21:00,71.8,61.9,30.08,SSE,161,0.0,8.0,71,0.00,,,0.00,VWS V14.01,2013-08-07 02:21:00,
2013-08-06 22:25:00,71.8,61.9,30.08,SSE,157,4.0,8.0,71,0.00,,,0.00,VWS V14.01,2013-08-07 02:25:00,
2013-08-06 22:26:00,71.8,61.9,30.08,SSE,161,0.0,8.0,71,0.00,,,0.00,VWS V14.01,2013-08-07 02:26:00,
2013-08-06 22:28:00,71.8,62.3,30.08,South,174,7.0,8.0,72,0.00,,,0.00,VWS V14.01,2013-08-07 02:28:00,
2013-08-06 22:29:00,71.8,62.3,30.08,South,175,0.0,8.0,72,0.00,,,0.00,VWS V14.01,2013-08-07 02:29:00,
2013-08-06 22:31:00,71.8,62.3,30.08,SSE,155,5.0,8.0,72,0.00,,,0.00,VWS V14.01,2013-08-07 02:31:00,
2013-08-06 22:32:00,71.8,62.3,30.08,SSE,158,4.0,8.0,72,0.00,,,0.00,VWS V14.01,2013-08-07 02:32:00,
2013-08-06 22:34:00,72.0,62.5,30.07,SSE,168,0.0,8.0,72,0.00,,,0.00,VWS V14.01,2013-08-07 02:34:00,
2013-08-06 22:35:00,72.0,62.5,30.07,SSE,168,0.0,8.0,72,0.00,,,0.00,VWS V14.01,2013-08-07 02:35:00,
2013-08-06 22:36:00,72.0,62.5,30.07,South,179,0.0,8.0,72,0.00,,,0.00,VWS V14.01,2013-08-07 02:36:00,
2013-08-06 22:37:00,72.0,62.5,30.07,SSE,157,0.0,8.0,72,0.00,,,0.00,VWS V14.01,2013-08-07 02:37:00,
2013-08-06 22:40:00,72.0,62.5,30.07,SSE,165,0.0,8.0,72,0.00,,,0.00,VWS V14.01,2013-08-07 02:40:00,
2013-08-06 22:42:00,72.0,62.5,30.07,SSE,165,2.0,8.0,72,0.00,,,0.00,VWS V14.01,2013-08-07 02:42:00,
2013-08-06 22:46:00,72.0,62.5,30.07,SSE,160,4.0,8.0,72,0.00,,,0.00,VWS V14.01,2013-08-07 02:46:00,
2013-08-06 22:47:00,72.0,62.5,30.07,South,170,4.0,8.0,72,0.00,,,0.00,VWS V14.01,2013-08-07 02:47:00,
2013-08-06 22:48:00,72.0,62.5,30.07,South,178,2.0,8.0,72,0.00,,,0.00,VWS V14.01,2013-08-07 02:48:00,
2013-08-06 22:51:00,72.0,62.5,30.08,SSE,152,4.0,9.0,72,0.00,,,0.00,VWS V14.01,2013-08-07 02:51:00,
2013-08-06 22:53:00,72.0,62.5,30.08,SSE,151,5.0,9.0,72,0.00,,,0.00,VWS V14.01,2013-08-07 02:53:00,
2013-08-06 22:57:00,72.1,63.0,30.08,South,178,0.0,9.0,73,0.00,,,0.00,VWS V14.01,2013-08-07 02:57:00,
2013-08-06 22:58:00,72.1,63.0,30.08,SSE,167,0.0,9.0,73,0.00,,,0.00,VWS V14.01,2013-08-07 02:58:00,
2013-08-06 23:01:00,72.1,63.0,30.08,SSW,200,3.0,9.0,73,0.00,,,0.00,VWS V14.01,2013-08-07 03:01:00,
2013-08-06 23:02:00,72.1,63.0,30.08,SSW,200,0.0,9.0,73,0.00,,,0.00,VWS V14.01,2013-08-07 03:02:00,
2013-08-06 23:03:00,72.1,63.0,30.08,SSW,198,0.0,9.0,73,0.00,,,0.00,VWS V14.01,2013-08-07 03:03:00,
2013-08-06 23:04:00,72.1,63.0,30.08,South,172,0.0,9.0,73,0.00,,,0.00,VWS V14.01,2013-08-07 03:04:00,
2013-08-06 23:05:00,72.1,63.0,30.08,South,172,0.0,0.0,73,0.00,,,0.00,VWS V14.01,2013-08-07 03:05:00,
2013-08-06 23:08:00,72.1,63.4,30.08,South,173,0.0,5.0,74,0.00,,,0.00,VWS V14.01,2013-08-07 03:08:00,
2013-08-06 23:10:00,72.0,63.3,30.08,South,173,0.0,5.0,74,0.00,,,0.00,VWS V14.01,2013-08-07 03:10:00,
2013-08-06 23:11:00,72.0,63.3,30.08,South,173,0.0,5.0,74,0.00,,,0.00,VWS V14.01,2013-08-07 03:11:00,
2013-08-06 23:13:00,72.0,63.3,30.08,South,173,0.0,5.0,74,0.00,,,0.00,VWS V14.01,2013-08-07 03:13:00,
2013-08-06 23:14:00,72.0,63.3,30.08,South,178,6.0,7.0,74,0.00,,,0.00,VWS V14.01,2013-08-07 03:14:00,
2013-08-06 23:15:00,72.0,63.3,30.08,South,178,0.0,7.0,74,0.00,,,0.00,VWS V14.01,2013-08-07 03:15:00,
2013-08-06 23:16:00,72.0,63.3,30.08,South,178,0.0,7.0,74,0.00,,,0.00,VWS V14.01,2013-08-07 03:16:00,
2013-08-06 23:20:00,72.0,63.7,30.08,South,178,0.0,7.0,75,0.00,,,0.00,VWS V14.01,2013-08-07 03:20:00,
2013-08-06 23:21:00,72.0,63.7,30.08,South,171,2.0,7.0,75,0.00,,,0.00,VWS V14.01,2013-08-07 03:21:00,
2013-08-06 23:22:00,72.0,63.7,30.08,South,174,7.0,7.0,75,0.00,,,0.00,VWS V14.01,2013-08-07 03:22:00,
2013-08-06 23:25:00,72.0,63.7,30.08,South,174,0.0,7.0,75,0.00,,,0.00,VWS V14.01,2013-08-07 03:25:00,
2013-08-06 23:26:00,72.0,63.7,30.08,South,174,5.0,7.0,75,0.00,,,0.00,VWS V14.01,2013-08-07 03:26:00,
2013-08-06 23:29:00,72.0,63.7,30.08,South,186,6.0,8.0,75,0.00,,,0.00,VWS V14.01,2013-08-07 03:29:00,
2013-08-06 23:30:00,72.0,63.7,30.08,South,191,5.0,8.0,75,0.00,,,0.00,VWS V14.01,2013-08-07 03:30:00,
2013-08-06 23:31:00,71.8,63.5,30.08,South,191,3.0,8.0,75,0.00,,,0.00,VWS V14.01,2013-08-07 03:31:00,
2013-08-06 23:32:00,71.8,63.5,30.08,South,191,3.0,8.0,75,0.00,,,0.00,VWS V14.01,2013-08-07 03:32:00,
2013-08-06 23:36:00,71.8,63.5,30.08,SSW,205,7.0,7.0,75,0.00,,,0.00,VWS V14.01,2013-08-07 03:36:00,
2013-08-06 23:37:00,71.8,63.5,30.08,SSW,206,1.0,7.0,75,0.00,,,0.00,VWS V14.01,2013-08-07 03:37:00,
2013-08-06 23:38:00,71.8,63.8,30.08,SSW,207,4.0,8.0,76,0.00,,,0.00,VWS V14.01,2013-08-07 03:38:00,
2013-08-06 23:39:00,71.8,63.8,30.08,SSE,154,0.0,8.0,76,0.00,,,0.00,VWS V14.01,2013-08-07 03:39:00,
2013-08-06 23:42:00,71.8,63.8,30.08,SSE,158,5.0,8.0,76,0.00,,,0.00,VWS V14.01,2013-08-07 03:42:00,
2013-08-06 23:44:00,71.8,63.8,30.08,South,179,1.0,8.0,76,0.00,,,0.00,VWS V14.01,2013-08-07 03:44:00,
2013-08-06 23:47:00,71.8,63.8,30.08,South,179,7.0,8.0,76,0.00,,,0.00,VWS V14.01,2013-08-07 03:47:00,
2013-08-06 23:48:00,71.8,63.8,30.08,South,179,6.0,8.0,76,0.00,,,0.00,VWS V14.01,2013-08-07 03:48:00,
2013-08-06 23:50:00,71.8,63.8,30.08,SSW,192,5.0,8.0,76,0.00,,,0.00,VWS V14.01,2013-08-07 03:50:00,
2013-08-06 23:53:00,71.8,63.8,30.08,SSW,198,6.0,8.0,76,0.00,,,0.00,VWS V14.01,2013-08-07 03:53:00,
2013-08-06 23:57:00,71.8,63.8,30.08,SSW,198,1.0,8.0,76,0.00,,,0.00,VWS V14.01,2013-08-07 03:57:00,
2013-08-06 23:59:00,71.8,63.8,30.08,SSW,198,0.0,8.0,76,0.00,,,0.00,VWS V14.01,2013-08-07 03:59:00,